GW3765 Weather Reports


time (UTC)temp
F
wind
direction
speed
knots
gust
knots
rain 1hr
in
rain 24hr
in
rain mn
in
humidity
%
barometer
mb
20260505223304 85 293 0.9 2.6 0.00 0.00 0.00 33 1009.7
20260505223204 85 73 0.9 2.6 0.00 0.00 0.00 34 1009.6
20260505223104 85 280 1.7 6.1 0.00 0.00 0.00 33 1009.8
20260505223004 84 29 2.6 6.1 0.00 0.00 0.00 32 1009.5
20260505222904 84 1 1.7 5.2 0.00 0.00 0.00 32 1009.6
20260505222804 84 232 0.9 5.2 0.00 0.00 0.00 34 1009.7
20260505222704 84 263 0.9 5.2 0.00 0.00 0.00 32 1009.6
20260505222604 84 307 3.5 5.2 0.00 0.00 0.00 33 1009.6
20260505222504 84 326 3.5 5.2 0.00 0.00 0.00 34 1009.7
20260505222425 84 288 3.5 7.0 0.00 0.00 0.00 33 1009.6
20260505222306 84 286 3.5 7.0 0.00 0.00 0.00 33 1009.6
20260505222204 84 292 1.7 3.5 0.00 0.00 0.00 33 1009.8
20260505222104 84 298 2.6 3.5 0.00 0.00 0.00 33 1009.6
20260505222004 84 293 2.6 2.6 0.00 0.00 0.00 33 1009.7
20260505221904 84 245 0.0 2.6 0.00 0.00 0.00 34 1009.6
20260505221804 84 208 0.9 2.6 0.00 0.00 0.00 34 1009.5
20260505221704 84 261 1.7 2.6 0.00 0.00 0.00 34 1009.9
20260505221604 83 275 0.9 2.6 0.00 0.00 0.00 33 1009.8
20260505221504 83 231 1.7 3.5 0.00 0.00 0.00 34 1009.7
20260505221404 83 241 0.9 3.5 0.00 0.00 0.00 36 1009.8
20260505221304 83 284 1.7 3.5 0.00 0.00 0.00 33 1009.8
20260505221204 83 296 2.6 6.1 0.00 0.00 0.00 34 1009.8
20260505221104 83 314 3.5 6.1 0.00 0.00 0.00 34 1009.9
20260505221004 83 303 3.5 7.0 0.00 0.00 0.00 34 1009.8
20260505220904 83 336 4.3 7.8 0.00 0.00 0.00 34 1009.9
20260505220804 84 288 4.3 7.8 0.00 0.00 0.00 34 1009.9
20260505220704 84 322 5.2 7.8 0.00 0.00 0.00 33 1009.7
20260505220604 84 240 1.7 5.2 0.00 0.00 0.00 34 1009.9
20260505220525 84 265 3.5 5.2 0.00 0.00 0.00 36 1009.9
20260505220425 84 283 2.6 5.2 0.00 0.00 0.00 34 1009.7
20260505220304 84 285 2.6 5.2 0.00 0.00 0.00 35 1009.8
20260505220225 84 284 1.7 6.1 0.00 0.00 0.00 34 1009.7
20260505220104 84 282 3.5 6.1 0.00 0.00 0.00 34 1009.9
20260505220025 84 308 3.5 6.1 0.00 0.00 0.00 33 1009.8
20260505215904 84 307 0.9 3.5 0.00 0.00 0.00 35 1010.1
20260505215804 84 294 2.6 3.5 0.00 0.00 0.00 36 1009.8
20260505215704 84 42 1.7 2.6 0.00 0.00 0.00 34 1009.9
20260505215604 84 284 0.9 2.6 0.00 0.00 0.00 36 1009.9
20260505215504 84 243 1.7 2.6 0.00 0.00 0.00 35 1009.9
20260505215425 84 234 0.9 2.6 0.00 0.00 0.00 39 1009.8
20260505215305 84 29 1.7 5.2 0.00 0.00 0.00 35 1010.0
20260505215204 84 193 1.7 5.2 0.00 0.00 0.00 35 1010.0
20260505215125 84 259 1.7 5.2 0.00 0.00 0.00 36 1010.0
20260505215004 83 254 1.7 3.5 0.00 0.00 0.00 35 1010.0
20260505214904 83 7 2.6 3.5 0.00 0.00 0.00 35 1010.0
20260505214804 83 276 1.7 3.5 0.00 0.00 0.00 35 1009.9
20260505214704 83 292 1.7 5.2 0.00 0.00 0.00 37 1010.0
20260505214604 84 289 2.6 5.2 0.00 0.00 0.00 34 1010.0
20260505214504 84 324 3.5 5.2 0.00 0.00 0.00 35 1010.1
20260505214404 83 264 1.7 5.2 0.00 0.00 0.00 37 1010.1
20260505214304 83 338 0.9 3.5 0.00 0.00 0.00 36 1010.3
20260505214204 83 347 1.7 3.5 0.00 0.00 0.00 35 1010.1
20260505214104 83 354 2.6 3.5 0.00 0.00 0.00 35 1009.8
20260505214004 83 280 1.7 2.6 0.00 0.00 0.00 35 1010.0
20260505213904 83 241 0.9 5.2 0.00 0.00 0.00 36 1010.0
20260505213804 83 231 0.9 6.1 0.00 0.00 0.00 36 1010.0
20260505213704 82 342 4.3 6.1 0.00 0.00 0.00 35 1010.1
20260505213604 82 277 3.5 6.1 0.00 0.00 0.00 36 1010.1
20260505213525 82 269 2.6 3.5 0.00 0.00 0.00 36 1010.1
20260505213404 82 314 1.7 3.5 0.00 0.00 0.00 35 1010.0
20260505213304 82 298 0.9 3.5 0.00 0.00 0.00 36 1010.1
20260505213204 82 333 1.7 5.2 0.00 0.00 0.00 38 1010.1
20260505213104 82 257 1.7 6.1 0.00 0.00 0.00 38 1010.4
20260505213004 82 297 2.6 7.0 0.00 0.00 0.00 36 1010.1
20260505212904 82 331 3.5 8.7 0.00 0.00 0.00 36 1010.2
20260505212804 82 221 2.6 8.7 0.00 0.00 0.00 38 1010.1
20260505212704 82 343 4.3 8.7 0.00 0.00 0.00 36 1010.2
20260505212604 83 343 5.2 7.8 0.00 0.00 0.00 36 1010.0
20260505212504 83 341 5.2 7.8 0.00 0.00 0.00 36 1010.1
20260505212404 82 306 3.5 7.0 0.00 0.00 0.00 35 1010.1
20260505212306 82 259 1.7 2.6 0.00 0.00 0.00 36 1010.0
20260505212204 82 260 1.7 5.2 0.00 0.00 0.00 36 1010.0
20260505212104 82 223 0.9 5.2 0.00 0.00 0.00 37 1010.1
20260505212004 82 263 0.9 7.8 0.00 0.00 0.00 37 1010.2
20260505211904 82 316 3.5 7.8 0.00 0.00 0.00 38 1010.1
20260505211804 82 348 2.6 5.2 0.00 0.00 0.00 36 1010.0
20260505211704 82 241 1.7 7.0 0.00 0.00 0.00 37 1010.1
20260505211625 82 217 0.9 7.0 0.00 0.00 0.00 37 1010.2
20260505211504 83 346 5.2 7.0 0.00 0.00 0.00 35 1010.1
20260505211404 82 9 0.9 5.2 0.00 0.00 0.00 37 1010.2
20260505211304 82 205 0.9 1.7 0.00 0.00 0.00 37 1010.2
20260505211204 82 201 0.9 3.5 0.00 0.00 0.00 38 1010.1
20260505211125 81 209 1.7 3.5 0.00 0.00 0.00 37 1010.2
20260505211025 81 324 2.6 5.2 0.00 0.00 0.00 37 1010.3
20260505210904 81 305 2.6 5.2 0.00 0.00 0.00 37 1010.0
20260505210825 81 335 2.6 3.5 0.00 0.00 0.00 37 1010.3
20260505210704 82 273 1.7 5.2 0.00 0.00 0.00 37 1010.1
20260505210625 82 267 2.6 5.2 0.00 0.00 0.00 37 1010.3
20260505210525 82 299 3.5 5.2 0.00 0.00 0.00 37 1010.1
20260505210404 82 239 0.9 2.6 0.00 0.00 0.00 37 1010.4
20260505210304 81 129 1.7 5.2 0.00 0.00 0.00 38 1010.5
20260505210204 81 88 3.5 7.8 0.00 0.00 0.00 38 1010.3
20260505210104 81 232 4.3 7.8 0.00 0.00 0.00 38 1010.2
20260505210004 81 346 3.5 6.1 0.00 0.00 0.00 39 1010.2
20260505205904 81 322 3.5 8.7 0.00 0.00 0.00 38 1010.3
20260505205804 81 4 4.3 8.7 0.00 0.00 0.00 38 1010.3
20260505205704 81 319 2.6 5.2 0.00 0.00 0.00 41 1010.3
20260505205604 80 345 3.5 5.2 0.00 0.00 0.00 39 1010.4
20260505205504 80 328 2.6 6.1 0.00 0.00 0.00 40 1010.2
20260505205404 80 307 3.5 6.1 0.00 0.00 0.00 39 1010.3
20260505205305 80 316 2.6 7.0 0.00 0.00 0.00 39 1010.4
20260505205225 81 277 2.6 7.0 0.00 0.00 0.00 40 1010.3
20260505205104 81 27 4.3 7.8 0.00 0.00 0.00 38 1010.5
20260505205025 81 349 3.5 7.8 0.00 0.00 0.00 39 1010.5
20260505204904 81 353 5.2 7.8 0.00 0.00 0.00 39 1010.5
20260505204804 81 19 3.5 7.8 0.00 0.00 0.00 39 1010.5
20260505204704 81 172 0.9 2.6 0.00 0.00 0.00 39 1010.3
20260505204604 81 251 0.0 1.7 0.00 0.00 0.00 39 1010.5
20260505204504 81 11 0.9 1.7 0.00 0.00 0.00 40 1010.3
20260505204425 80 131 0.9 1.7 0.00 0.00 0.00 40 1010.4
20260505204304 80 264 0.9 6.1 0.00 0.00 0.00 39 1010.5
20260505204204 80 339 2.6 7.0 0.00 0.00 0.00 38 1010.4
20260505204104 80 339 4.3 7.0 0.00 0.00 0.00 39 1010.5
20260505204004 81 327 5.2 7.0 0.00 0.00 0.00 39 1010.6
20260505203904 81 345 3.5 7.0 0.00 0.00 0.00 41 1010.6
20260505203804 80 23 4.3 7.0 0.00 0.00 0.00 40 1010.5
20260505203725 80 339 4.3 7.0 0.00 0.00 0.00 39 1010.5
20260505203604 80 2 3.5 7.8 0.00 0.00 0.00 42 1010.4
20260505203504 80 348 4.3 7.8 0.00 0.00 0.00 40 1010.6
20260505203404 80 286 2.6 8.7 0.00 0.00 0.00 41 1010.3
20260505203304 80 336 4.3 8.7 0.00 0.00 0.00 42 1010.6
20260505203204 80 346 5.2 7.8 0.00 0.00 0.00 40 1010.6
20260505203104 80 344 3.5 6.1 0.00 0.00 0.00 40 1010.7
20260505203004 80 16 2.6 5.2 0.00 0.00 0.00 40 1010.5
20260505202904 80 278 2.6 5.2 0.00 0.00 0.00 41 1010.6
20260505202804 79 238 1.7 3.5 0.00 0.00 0.00 40 1010.7
20260505202704 79 287 1.7 3.5 0.00 0.00 0.00 40 1010.6
20260505202604 79 264 1.7 3.5 0.00 0.00 0.00 40 1010.7
20260505202504 79 273 2.6 3.5 0.00 0.00 0.00 40 1010.5
20260505202404 79 310 2.6 6.1 0.00 0.00 0.00 41 1010.6
20260505202306 79 296 4.3 7.8 0.00 0.00 0.00 40 1010.7
20260505202204 79 299 5.2 7.8 0.00 0.00 0.00 41 1010.8
20260505202104 79 273 4.3 6.1 0.00 0.00 0.00 40 1010.7
20260505202004 79 320 3.5 8.7 0.00 0.00 0.00 41 1010.6
20260505201904 79 345 5.2 8.7 0.00 0.00 0.00 40 1010.6
20260505201804 79 317 4.3 7.8 0.00 0.00 0.00 41 1010.7
20260505201704 79 332 5.2 7.8 0.00 0.00 0.00 40 1010.5
20260505201625 79 339 5.2 7.0 0.00 0.00 0.00 41 1010.8
20260505201525 79 345 3.5 6.1 0.00 0.00 0.00 41 1010.5
20260505201404 79 308 4.3 6.1 0.00 0.00 0.00 40 1010.9
20260505201304 79 293 1.7 6.1 0.00 0.00 0.00 41 1010.6
20260505201204 79 356 4.3 6.1 0.00 0.00 0.00 41 1010.6
20260505201125 79 332 3.5 5.2 0.00 0.00 0.00 40 1010.7
20260505201004 79 329 2.6 5.2 0.00 0.00 0.00 40 1010.7
20260505200904 79 260 0.9 2.6 0.00 0.00 0.00 41 1010.5
20260505200825 78 235 0.9 2.6 0.00 0.00 0.00 42 1010.8
20260505200704 78 292 2.6 5.2 0.00 0.00 0.00 42 1010.6
20260505200604 78 243 2.6 6.1 0.00 0.00 0.00 42 1010.6
20260505200525 79 300 2.6 7.0 0.00 0.00 0.00 43 1010.5
20260505200404 79 318 4.3 7.8 0.00 0.00 0.00 41 1010.8
20260505200304 79 315 4.3 7.8 0.00 0.00 0.00 41 1010.6
20260505200204 79 330 6.1 7.8 0.00 0.00 0.00 41 1010.9
20260505200104 79 353 2.6 5.2 0.00 0.00 0.00 42 1010.7
20260505200004 78 284 2.6 7.0 0.00 0.00 0.00 42 1010.8
20260505195904 78 319 2.6 7.0 0.00 0.00 0.00 43 1010.6
20260505195804 77 301 4.3 6.1 0.00 0.00 0.00 43 1010.6
20260505195704 77 269 2.6 6.1 0.00 0.00 0.00 43 1010.8
20260505195604 78 323 3.5 7.0 0.00 0.00 0.00 42 1010.8
20260505195504 79 318 4.3 7.0 0.00 0.00 0.00 42 1010.7
20260505195425 79 313 4.3 7.0 0.00 0.00 0.00 41 1010.5
20260505195305 78 257 1.7 7.0 0.00 0.00 0.00 41 1010.7
20260505195204 78 300 3.5 7.0 0.00 0.00 0.00 42 1010.6
20260505195104 78 294 5.2 7.0 0.00 0.00 0.00 42 1010.7
20260505195004 78 256 1.7 6.1 0.00 0.00 0.00 43 1010.7
20260505194904 78 302 2.6 6.1 0.00 0.00 0.00 41 1010.7
20260505194804 77 310 4.3 7.0 0.00 0.00 0.00 42 1010.7
20260505194704 77 276 3.5 7.8 0.00 0.00 0.00 42 1010.8
20260505194604 78 315 5.2 7.8 0.00 0.00 0.00 41 1010.6
20260505194504 78 291 4.3 7.0 0.00 0.00 0.00 41 1010.7
20260505194404 78 252 2.6 7.0 0.00 0.00 0.00 43 1010.7
20260505194304 78 319 4.3 7.0 0.00 0.00 0.00 42 1010.7
20260505194204 78 302 5.2 7.0 0.00 0.00 0.00 41 1010.7
20260505194104 77 332 2.6 6.1 0.00 0.00 0.00 44 1010.8
20260505194004 77 339 3.5 7.0 0.00 0.00 0.00 42 1010.7
20260505193904 77 319 2.6 7.0 0.00 0.00 0.00 43 1010.7
20260505193804 77 351 2.6 7.8 0.00 0.00 0.00 43 1010.8
20260505193704 77 307 2.6 7.8 0.00 0.00 0.00 42 1010.8
20260505193604 77 312 3.5 7.8 0.00 0.00 0.00 44 1010.8
20260505193504 77 266 1.7 7.0 0.00 0.00 0.00 43 1010.8
20260505193404 77 350 4.3 7.8 0.00 0.00 0.00 42 1010.8
20260505193304 77 341 5.2 7.8 0.00 0.00 0.00 42 1010.7
20260505193204 77 315 5.2 7.0 0.00 0.00 0.00 42 1010.6
20260505193104 77 333 2.6 7.8 0.00 0.00 0.00 44 1010.7
20260505193004 77 353 5.2 7.8 0.00 0.00 0.00 42 1010.8
20260505192904 77 329 3.5 5.2 0.00 0.00 0.00 42 1010.7
20260505192804 77 341 3.5 5.2 0.00 0.00 0.00 42 1010.7
20260505192725 76 325 2.6 3.5 0.00 0.00 0.00 42 1010.7
20260505192625 76 307 2.6 6.1 0.00 0.00 0.00 45 1010.8
20260505192504 76 310 3.5 6.1 0.00 0.00 0.00 43 1010.7
20260505192404 76 291 2.6 6.1 0.00 0.00 0.00 42 1010.8
20260505192305 77 314 5.2 7.0 0.00 0.00 0.00 41 1010.9
20260505192204 77 300 5.2 7.0 0.00 0.00 0.00 42 1010.7
20260505192104 76 293 3.5 6.1 0.00 0.00 0.00 43 1010.7
20260505192004 76 335 3.5 5.2 0.00 0.00 0.00 44 1010.7
20260505191904 76 305 2.6 5.2 0.00 0.00 0.00 43 1010.6
20260505191825 76 275 2.6 6.1 0.00 0.00 0.00 45 1010.7
20260505191704 76 330 2.6 8.7 0.00 0.00 0.00 44 1010.7
20260505191604 77 329 5.2 8.7 0.00 0.00 0.00 43 1010.8
20260505191504 77 315 6.1 8.7 0.00 0.00 0.00 43 1010.9
20260505191404 77 298 3.5 6.1 0.00 0.00 0.00 42 1010.8
20260505191304 76 294 2.6 3.5 0.00 0.00 0.00 44 1010.8
20260505191204 76 298 1.7 5.2 0.00 0.00 0.00 44 1010.8
20260505191104 76 219 1.7 6.1 0.00 0.00 0.00 45 1010.9
20260505191004 76 329 2.6 7.8 0.00 0.00 0.00 43 1010.9
20260505190925 76 323 4.3 7.8 0.00 0.00 0.00 45 1010.8
20260505190804 76 312 3.5 6.1 0.00 0.00 0.00 44 1011.0
20260505190704 76 310 3.5 7.0 0.00 0.00 0.00 43 1010.8
20260505190604 77 331 4.3 7.0 0.00 0.00 0.00 43 1010.9
20260505190504 77 323 3.5 7.0 0.00 0.00 0.00 43 1010.8
20260505190404 77 316 1.7 3.5 0.00 0.00 0.00 43 1011.0
20260505190304 77 261 1.7 3.5 0.00 0.00 0.00 45 1010.7
20260505190204 77 253 1.7 5.2 0.00 0.00 0.00 43 1010.8
20260505190104 76 321 0.9 5.2 0.00 0.00 0.00 45 1010.9
20260505190004 76 292 2.6 5.2 0.00 0.00 0.00 46 1010.8
20260505185904 76 351 0.9 2.6 0.00 0.00 0.00 45 1010.7
20260505185804 75 238 1.7 3.5 0.00 0.00 0.00 46 1010.9
20260505185704 75 303 2.6 3.5 0.00 0.00 0.00 45 1010.9
20260505185604 75 307 2.6 5.2 0.00 0.00 0.00 44 1010.9
20260505185504 75 288 3.5 6.1 0.00 0.00 0.00 45 1011.0
20260505185425 75 355 3.5 6.1 0.00 0.00 0.00 46 1010.8
20260505185305 75 290 2.6 6.1 0.00 0.00 0.00 45 1010.9
20260505185204 75 316 3.5 7.0 0.00 0.00 0.00 44 1010.9
20260505184904 74 4 3.5 6.1 0.00 0.00 0.00 46 1010.9
20260505184804 74 330 4.3 7.0 0.00 0.00 0.00 46 1010.9
20260505184704 74 316 5.2 7.0 0.00 0.00 0.00 46 1011.0
20260505184625 74 303 5.2 7.0 0.00 0.00 0.00 46 1011.0
20260505184504 74 317 4.3 8.7 0.00 0.00 0.00 46 1010.8
20260505184404 74 336 5.2 8.7 0.00 0.00 0.00 46 1011.1
20260505184304 75 330 5.2 8.7 0.00 0.00 0.00 45 1010.9
20260505184204 75 334 2.6 7.0 0.00 0.00 0.00 46 1010.8
20260505184104 75 336 1.7 7.0 0.00 0.00 0.00 45 1011.0
20260505184004 75 327 4.3 7.8 0.00 0.00 0.00 45 1010.9
20260505183904 75 357 3.5 7.8 0.00 0.00 0.00 46 1011.1
20260505183825 75 357 4.3 7.8 0.00 0.00 0.00 45 1011.0
20260505183704 74 260 1.7 5.2 0.00 0.00 0.00 46 1010.9
20260505183604 74 323 3.5 5.2 0.00 0.00 0.00 48 1011.0
20260505183525 74 350 2.6 5.2 0.00 0.00 0.00 46 1010.9
20260505183404 74 4 3.5 7.8 0.00 0.00 0.00 45 1011.0
20260505183325 74 1 4.3 7.8 0.00 0.00 0.00 46 1011.0
20260505183204 73 355 4.3 7.8 0.00 0.00 0.00 47 1011.0
20260505183125 73 324 2.6 7.0 0.00 0.00 0.00 47 1011.0
20260505183004 74 301 3.5 7.0 0.00 0.00 0.00 47 1011.2
20260505182925 74 329 5.2 7.0 0.00 0.00 0.00 46 1011.1
20260505182825 74 346 4.3 7.0 0.00 0.00 0.00 46 1010.9
20260505182704 74 316 2.6 7.0 0.00 0.00 0.00 47 1011.0
20260505182604 74 318 3.5 7.0 0.00 0.00 0.00 46 1010.9
20260505182504 74 269 3.5 6.1 0.00 0.00 0.00 47 1011.0
20260505182404 74 295 2.6 6.1 0.00 0.00 0.00 45 1011.1
20260505182325 74 259 1.7 5.2 0.00 0.00 0.00 47 1011.1
20260505182204 74 272 0.9 3.5 0.00 0.00 0.00 47 1011.1
20260505182104 74 253 0.9 3.5 0.00 0.00 0.00 46 1010.9
20260505182004 74 283 1.7 3.5 0.00 0.00 0.00 47 1011.1
20260505181904 73 274 1.7 3.5 0.00 0.00 0.00 46 1011.0
20260505181825 73 253 0.9 3.5 0.00 0.00 0.00 48 1011.1
20260505181704 73 302 1.7 3.5 0.00 0.00 0.00 48 1011.1
20260505181604 73 320 3.5 6.1 0.00 0.00 0.00 47 1011.1
20260505181504 73 301 3.5 8.7 0.00 0.00 0.00 48 1010.9
20260505181404 73 306 4.3 8.7 0.00 0.00 0.00 48 1010.9
20260505181304 73 326 5.2 7.0 0.00 0.00 0.00 47 1011.1
20260505181225 72 335 5.2 7.0 0.00 0.00 0.00 47 1011.1
20260505181104 72 294 4.3 7.0 0.00 0.00 0.00 49 1011.1
20260505181004 72 288 4.3 7.0 0.00 0.00 0.00 48 1011.1
20260505180904 72 298 2.6 6.1 0.00 0.00 0.00 49 1011.0
20260505180804 72 311 4.3 6.1 0.00 0.00 0.00 49 1011.1
20260505180704 72 307 3.5 7.0 0.00 0.00 0.00 48 1011.1
20260505180604 72 302 5.2 7.0 0.00 0.00 0.00 48 1011.2
20260505180504 72 295 4.3 8.7 0.00 0.00 0.00 48 1011.0
20260505180404 72 299 5.2 8.7 0.00 0.00 0.00 49 1011.2
20260505180304 72 275 5.2 7.0 0.00 0.00 0.00 49 1011.0
20260505180204 72 277 4.3 7.0 0.00 0.00 0.00 49 1011.2
20260505180104 72 324 3.5 7.0 0.00 0.00 0.00 48 1011.2
20260505180004 72 296 3.5 7.0 0.00 0.00 0.00 48 1011.1
20260505175904 72 269 4.3 7.0 0.00 0.00 0.00 49 1011.0
20260505175804 72 331 4.3 7.0 0.00 0.00 0.00 48 1011.3
20260505175704 72 293 3.5 7.0 0.00 0.00 0.00 48 1011.0
20260505175604 72 299 1.7 5.2 0.00 0.00 0.00 49 1011.2
20260505175504 72 322 2.6 5.2 0.00 0.00 0.00 48 1011.0
20260505175404 72 307 2.6 3.5 0.00 0.00 0.00 48 1011.0
20260505175305 72 331 2.6 3.5 0.00 0.00 0.00 50 1011.2
20260505175204 72 257 1.7 3.5 0.00 0.00 0.00 49 1011.1
20260505175104 71 260 0.9 7.8 0.00 0.00 0.00 49 1011.0
20260505175004 71 251 1.7 7.8 0.00 0.00 0.00 50 1011.0
20260505174904 71 289 3.5 7.8 0.00 0.00 0.00 50 1011.0
20260505174804 71 294 3.5 5.2 0.00 0.00 0.00 50 1010.9
20260505174704 71 313 3.5 5.2 0.00 0.00 0.00 51 1011.0
20260505174604 71 287 1.7 5.2 0.00 0.00 0.00 51 1011.0
20260505174504 71 337 3.5 6.1 0.00 0.00 0.00 50 1011.1
20260505174404 71 313 3.5 7.0 0.00 0.00 0.00 52 1011.1
20260505174304 71 304 5.2 7.0 0.00 0.00 0.00 51 1011.2
20260505174204 71 309 3.5 6.1 0.00 0.00 0.00 51 1011.2
20260505174104 71 301 2.6 7.8 0.00 0.00 0.00 51 1011.1
20260505174025 71 303 4.3 7.8 0.00 0.00 0.00 50 1011.1
20260505173904 70 327 3.5 7.0 0.00 0.00 0.00 52 1011.3
20260505173804 70 325 3.5 7.0 0.00 0.00 0.00 51 1011.4
20260505173704 71 298 3.5 6.1 0.00 0.00 0.00 51 1011.0
20260505173604 71 303 4.3 6.1 0.00 0.00 0.00 50 1011.3
20260505173504 71 271 1.7 5.2 0.00 0.00 0.00 51 1011.1
20260505173404 70 295 2.6 5.2 0.00 0.00 0.00 51 1011.1
20260505173304 70 300 3.5 5.2 0.00 0.00 0.00 52 1011.1
20260505173204 70 256 2.6 6.1 0.00 0.00 0.00 52 1011.2
20260505173104 70 260 3.5 6.1 0.00 0.00 0.00 51 1011.2
20260505173004 70 297 3.5 6.1 0.00 0.00 0.00 51 1011.2
20260505172925 70 298 3.5 6.1 0.00 0.00 0.00 51 1011.1
20260505172804 69 263 0.9 2.6 0.00 0.00 0.00 52 1011.2
20260505172725 69 272 0.9 5.2 0.00 0.00 0.00 51 1011.3
20260505172604 69 326 3.5 6.1 0.00 0.00 0.00 52 1011.1
20260505172504 69 315 3.5 6.1 0.00 0.00 0.00 51 1011.2
20260505172425 69 273 1.7 6.1 0.00 0.00 0.00 51 1011.2
20260505172325 69 292 3.5 6.1 0.00 0.00 0.00 51 1011.3
20260505172204 69 298 3.5 5.2 0.00 0.00 0.00 51 1011.1
20260505172125 70 277 2.6 5.2 0.00 0.00 0.00 50 1011.0
20260505172004 70 303 3.5 5.2 0.00 0.00 0.00 52 1011.2
20260505171904 70 316 3.5 3.5 0.00 0.00 0.00 50 1011.2
20260505171825 70 321 2.6 3.5 0.00 0.00 0.00 51 1011.2
20260505171704 69 229 1.7 5.2 0.00 0.00 0.00 52 1011.1
20260505171604 68 242 0.9 6.1 0.00 0.00 0.00 51 1011.1
20260505171504 68 311 2.6 6.1 0.00 0.00 0.00 54 1011.1
20260505171404 68 287 2.6 3.5 0.00 0.00 0.00 53 1011.1
20260505171304 68 266 2.6 5.2 0.00 0.00 0.00 53 1011.0
20260505171204 68 297 2.6 5.2 0.00 0.00 0.00 53 1011.0
20260505171104 68 327 3.5 5.2 0.00 0.00 0.00 53 1011.1
20260505171004 68 297 3.5 5.2 0.00 0.00 0.00 54 1010.9
20260505170904 68 269 1.7 3.5 0.00 0.00 0.00 53 1011.0
20260505170804 68 230 3.5 6.1 0.00 0.00 0.00 53 1011.1
20260505170704 68 279 2.6 6.1 0.00 0.00 0.00 54 1011.0
20260505170604 68 287 1.7 3.5 0.00 0.00 0.00 53 1010.8
20260505170504 68 293 2.6 6.1 0.00 0.00 0.00 53 1011.2
20260505170404 67 328 3.5 6.1 0.00 0.00 0.00 53 1011.1
20260505170304 67 295 3.5 5.2 0.00 0.00 0.00 53 1011.0
20260505170204 67 306 3.5 6.1 0.00 0.00 0.00 54 1011.1
20260505170125 67 319 3.5 6.1 0.00 0.00 0.00 54 1011.2
20260505170004 67 344 4.3 6.1 0.00 0.00 0.00 54 1011.2
20260505165904 67 324 4.3 6.1 0.00 0.00 0.00 54 1011.2
20260505165804 67 306 2.6 6.1 0.00 0.00 0.00 54 1011.0
20260505165725 67 300 3.5 6.1 0.00 0.00 0.00 54 1011.2
20260505165604 67 310 3.5 5.2 0.00 0.00 0.00 54 1011.0
20260505165504 67 252 1.7 5.2 0.00 0.00 0.00 54 1011.2
20260505165404 67 315 2.6 5.2 0.00 0.00 0.00 54 1011.0
20260505165306 67 309 3.5 5.2 0.00 0.00 0.00 53 1011.1
20260505165225 67 267 2.6 5.2 0.00 0.00 0.00 53 1011.1
20260505165104 67 239 0.9 6.1 0.00 0.00 0.00 54 1011.0
20260505165004 67 287 4.3 6.1 0.00 0.00 0.00 52 1011.1
20260505164904 66 237 1.7 6.1 0.00 0.00 0.00 53 1011.1
20260505164804 66 280 2.6 7.0 0.00 0.00 0.00 54 1011.0
20260505164704 66 302 4.3 7.0 0.00 0.00 0.00 53 1011.1
20260505164604 67 313 5.2 7.0 0.00 0.00 0.00 52 1011.0
20260505164504 66 268 2.6 6.1 0.00 0.00 0.00 53 1011.1
20260505164404 67 301 4.3 7.8 0.00 0.00 0.00 53 1011.0
20260505164304 67 331 4.3 7.8 0.00 0.00 0.00 53 1011.1
20260505164204 67 308 4.3 7.8 0.00 0.00 0.00 52 1011.0
20260505164104 67 322 2.6 5.2 0.00 0.00 0.00 53 1011.2
20260505164004 67 312 2.6 6.1 0.00 0.00 0.00 53 1011.1
20260505163925 67 298 3.5 6.1 0.00 0.00 0.00 54 1011.2
20260505163804 67 315 4.3 5.2 0.00 0.00 0.00 52 1011.2
20260505163704 67 295 3.5 5.2 0.00 0.00 0.00 54 1011.0
20260505163604 67 346 3.5 5.2 0.00 0.00 0.00 53 1011.0
20260505163504 67 288 3.5 6.1 0.00 0.00 0.00 54 1011.1
20260505163404 67 318 3.5 6.1 0.00 0.00 0.00 53 1011.0
20260505163325 67 312 3.5 6.1 0.00 0.00 0.00 53 1011.0
20260505163225 67 330 3.5 6.1 0.00 0.00 0.00 53 1011.0
20260505163125 67 308 3.5 5.2 0.00 0.00 0.00 54 1011.0
20260505163004 66 256 1.7 6.1 0.00 0.00 0.00 55 1011.0
20260505162904 66 323 4.3 6.1 0.00 0.00 0.00 55 1010.9
20260505162804 66 311 3.5 6.1 0.00 0.00 0.00 55 1010.9
20260505162704 66 312 4.3 6.1 0.00 0.00 0.00 54 1011.0
20260505162604 66 324 3.5 7.0 0.00 0.00 0.00 55 1011.0
20260505162504 66 290 5.2 7.8 0.00 0.00 0.00 55 1010.9
20260505162404 66 341 5.2 7.8 0.00 0.00 0.00 55 1010.8
20260505162306 66 298 5.2 7.0 0.00 0.00 0.00 55 1010.9
20260505162204 66 293 3.5 7.0 0.00 0.00 0.00 55 1010.8
20260505162125 66 294 4.3 7.0 0.00 0.00 0.00 56 1010.9
20260505162025 66 320 5.2 7.0 0.00 0.00 0.00 55 1010.8
20260505161904 66 285 3.5 7.0 0.00 0.00 0.00 55 1011.0
20260505161804 65 314 4.3 7.0 0.00 0.00 0.00 55 1011.0
20260505161725 65 331 5.2 7.0 0.00 0.00 0.00 56 1010.9
20260505161604 65 328 4.3 7.0 0.00 0.00 0.00 56 1011.1
20260505161504 65 309 5.2 7.8 0.00 0.00 0.00 55 1011.0
20260505161404 65 302 5.2 7.8 0.00 0.00 0.00 56 1010.9
20260505161304 65 307 5.2 7.0 0.00 0.00 0.00 56 1010.8
20260505161204 65 287 3.5 7.8 0.00 0.00 0.00 56 1010.9
20260505161104 65 330 5.2 7.8 0.00 0.00 0.00 56 1010.9
20260505161004 65 328 5.2 7.0 0.00 0.00 0.00 55 1010.9
20260505160904 65 322 3.5 6.1 0.00 0.00 0.00 56 1010.7
20260505160804 65 319 3.5 6.1 0.00 0.00 0.00 56 1010.9
20260505160704 64 304 3.5 5.2 0.00 0.00 0.00 56 1010.7
20260505160604 64 302 2.6 6.1 0.00 0.00 0.00 57 1010.9
20260505160504 64 302 3.5 7.0 0.00 0.00 0.00 57 1010.9
20260505160404 64 314 4.3 7.0 0.00 0.00 0.00 57 1010.7
20260505160304 64 305 4.3 7.0 0.00 0.00 0.00 57 1010.8
20260505160204 64 296 4.3 6.1 0.00 0.00 0.00 56 1011.0
20260505160104 64 295 4.3 6.1 0.00 0.00 0.00 57 1010.7
20260505153304 64 307 4.3 7.0 0.00 0.00 0.00 57 1010.6
20260505153204 64 319 4.3 7.0 0.00 0.00 0.00 57 1010.5
20260505153104 64 314 4.3 6.1 0.00 0.00 0.00 56 1010.5
20260505153025 64 317 4.3 7.0 0.00 0.00 0.00 56 1010.6
20260505152925 64 328 3.5 7.0 0.00 0.00 0.00 57 1010.5
20260505152804 64 349 3.5 6.1 0.00 0.00 0.00 57 1010.5
20260505152704 64 338 3.5 6.1 0.00 0.00 0.00 57 1010.2
20260505152604 64 5 3.5 6.1 0.00 0.00 0.00 58 1010.4
20260505152504 64 319 3.5 6.1 0.00 0.00 0.00 58 1010.3
20260505152425 64 336 3.5 5.2 0.00 0.00 0.00 58 1010.5
20260505152305 64 315 3.5 5.2 0.00 0.00 0.00 58 1010.4
20260505152225 64 334 3.5 5.2 0.00 0.00 0.00 58 1010.4
20260505152104 64 311 3.5 6.1 0.00 0.00 0.00 58 1010.3
20260505152004 64 312 3.5 6.1 0.00 0.00 0.00 58 1010.4
20260505151904 64 330 2.6 5.2 0.00 0.00 0.00 58 1010.2
20260505151804 64 304 1.7 5.2 0.00 0.00 0.00 58 1010.3
20260505151704 64 274 0.9 1.7 0.00 0.00 0.00 58 1010.3
20260505151604 64 267 0.9 1.7 0.00 0.00 0.00 58 1010.2
20260505151504 64 248 0.0 1.7 0.00 0.00 0.00 59 1010.3
20260505151404 64 243 0.0 1.7 0.00 0.00 0.00 60 1010.3
20260505151304 64 267 0.9 1.7 0.00 0.00 0.00 60 1010.3
20260505151204 63 261 0.9 2.6 0.00 0.00 0.00 59 1010.4
20260505151104 63 320 1.7 2.6 0.00 0.00 0.00 60 1010.4
20260505151004 63 320 1.7 3.5 0.00 0.00 0.00 60 1010.1
20260505150904 63 308 2.6 3.5 0.00 0.00 0.00 60 1010.2
20260505150804 63 316 2.6 5.2 0.00 0.00 0.00 59 1010.1
20260505150704 63 312 2.6 5.2 0.00 0.00 0.00 60 1010.2
20260505150625 63 314 3.5 5.2 0.00 0.00 0.00 60 1010.3
20260505150525 63 332 2.6 5.2 0.00 0.00 0.00 59 1010.4
20260505150404 63 310 2.6 3.5 0.00 0.00 0.00 60 1010.1
20260505150304 63 290 2.6 3.5 0.00 0.00 0.00 60 1010.3
20260505150204 63 297 2.6 3.5 0.00 0.00 0.00 60 1010.2
20260505150104 63 287 2.6 2.6 0.00 0.00 0.00 60 1010.2
20260505140604 60 301 2.6 3.5 0.00 0.00 0.00 68 1009.5
20260505140504 60 293 2.6 3.5 0.00 0.00 0.00 68 1009.5
20260505140425 60 288 2.6 3.5 0.00 0.00 0.00 68 1009.6
20260505140304 60 288 3.5 3.5 0.00 0.00 0.00 68 1009.6
20260505140225 60 290 2.6 5.2 0.00 0.00 0.00 68 1009.6
20260505140104 60 266 2.6 5.2 0.00 0.00 0.00 68 1009.6
20260505130304 58 280 1.7 3.5 0.00 0.00 0.00 71 1008.9
20260505130204 58 279 1.7 3.5 0.00 0.00 0.00 71 1008.8
20260505130103 58 266 0.9 0.9 0.00 0.00 0.00 71 1008.8
20260505125004 57 256 0.9 0.9 0.00 0.00 0.00 72 1008.8
20260505124925 57 257 0.9 0.9 0.00 0.00 0.00 72 1008.8
20260505124804 57 251 0.0 1.7 0.00 0.00 0.00 72 1008.7
20260505124703 57 271 0.9 1.7 0.00 0.00 0.00 72 1008.7
20260505124604 57 263 0.9 1.7 0.00 0.00 0.00 71 1008.9
20260505124504 57 260 0.9 1.7 0.00 0.00 0.00 71 1008.6
20260505124404 57 261 0.9 2.6 0.00 0.00 0.00 71 1008.8
20260505124304 57 271 1.7 2.6 0.00 0.00 0.00 71 1008.8
20260505124203 57 272 0.9 1.7 0.00 0.00 0.00 71 1008.8
20260505124104 58 272 0.9 1.7 0.00 0.00 0.00 71 1008.8
20260505124004 58 269 0.9 1.7 0.00 0.00 0.00 71 1008.6
20260505123904 58 261 0.9 2.6 0.00 0.00 0.00 71 1008.5
20260505123804 58 290 1.7 2.6 0.00 0.00 0.00 71 1008.7
20260505123704 58 306 1.7 1.7 0.00 0.00 0.00 71 1008.5
20260505123604 58 287 0.9 5.2 0.00 0.00 0.00 71 1008.7
20260505123525 58 293 1.7 5.2 0.00 0.00 0.00 71 1008.6
20260505123425 58 330 2.6 5.2 0.00 0.00 0.00 71 1008.5
20260505123304 58 340 3.5 3.5 0.00 0.00 0.00 72 1008.6
20260505123204 58 309 2.6 3.5 0.00 0.00 0.00 72 1008.6
20260505123104 58 325 2.6 3.5 0.00 0.00 0.00 72 1008.4
20260505123004 58 286 1.7 5.2 0.00 0.00 0.00 72 1008.5
20260505122904 58 331 3.5 5.2 0.00 0.00 0.00 72 1008.4
20260505122804 58 300 2.6 3.5 0.00 0.00 0.00 72 1008.5
20260505122704 58 313 2.6 3.5 0.00 0.00 0.00 72 1008.5
20260505122604 58 305 1.7 1.7 0.00 0.00 0.00 73 1008.5
20260505122504 58 277 0.9 1.7 0.00 0.00 0.00 73 1008.4
20260505122403 58 280 0.9 1.7 0.00 0.00 0.00 73 1008.5
20260505122305 58 284 0.9 1.7 0.00 0.00 0.00 73 1008.3
20260505122204 58 267 1.7 2.6 0.00 0.00 0.00 73 1008.3
20260505122103 58 270 1.7 2.6 0.00 0.00 0.00 73 1008.3
20260505122025 58 271 1.7 2.6 0.00 0.00 0.00 73 1008.5
20260505121904 58 262 0.9 1.7 0.00 0.00 0.00 73 1008.4
20260505121804 58 274 0.9 1.7 0.00 0.00 0.00 72 1008.3
20260505121704 58 270 0.9 0.9 0.00 0.00 0.00 72 1008.3
20260505121603 58 257 0.9 1.7 0.00 0.00 0.00 72 1008.2
20260505121504 58 277 0.9 3.5 0.00 0.00 0.00 72 1008.3
20260505121404 58 294 1.7 3.5 0.00 0.00 0.00 72 1008.3
20260505121304 58 296 2.6 3.5 0.00 0.00 0.00 72 1008.3
20260505121204 58 296 1.7 2.6 0.00 0.00 0.00 72 1008.1
20260505121104 58 285 1.7 2.6 0.00 0.00 0.00 72 1008.3
20260505121004 58 290 1.7 2.6 0.00 0.00 0.00 72 1008.1
20260505120904 58 287 2.6 3.5 0.00 0.00 0.00 72 1008.2
20260505120804 58 327 2.6 3.5 0.00 0.00 0.00 73 1008.0
20260505120704 58 275 1.7 2.6 0.00 0.00 0.00 73 1008.1
20260505120604 58 284 1.7 2.6 0.00 0.00 0.00 73 1008.2
20260505120504 58 286 1.7 2.6 0.00 0.00 0.00 74 1008.0
20260505120403 58 301 1.7 2.6 0.00 0.00 0.00 74 1008.2
20260505120304 58 284 1.7 2.6 0.00 0.00 0.00 74 1008.2
20260505120204 59 263 0.9 1.7 0.00 0.00 0.00 74 1008.2
20260505120104 59 298 1.7 2.6 0.00 0.00 0.00 73 1008.1
20260505120025 59 271 1.7 2.6 0.00 0.00 0.00 74 1008.1
20260505115904 59 298 1.7 2.6 0.00 0.00 0.00 74 1008.1
20260505115804 59 266 0.9 1.7 0.00 0.00 0.00 74 1007.9
20260505115704 59 266 0.9 1.7 0.00 0.00 0.00 74 1007.9
20260505115604 59 269 0.9 1.7 0.00 0.00 0.00 74 1008.2
20260505115525 59 292 0.9 1.7 0.00 0.00 0.00 74 1007.9
20260505115404 59 268 0.9 0.9 0.00 0.00 0.00 74 1008.0
20260505115305 59 260 0.9 0.9 0.00 0.00 0.00 74 1008.0
20260505115204 59 258 0.9 1.7 0.00 0.00 0.00 74 1008.0
20260505115104 59 252 0.9 1.7 0.00 0.00 0.00 74 1007.8
20260505115004 59 267 0.9 1.7 0.00 0.00 0.00 74 1008.0
20260505114904 59 264 0.9 2.6 0.00 0.00 0.00 73 1008.1
20260505114804 59 283 1.7 2.6 0.00 0.00 0.00 73 1007.8
20260505114704 59 272 0.9 2.6 0.00 0.00 0.00 74 1008.0
20260505114604 59 276 1.7 2.6 0.00 0.00 0.00 74 1008.1
20260505114525 59 279 1.7 2.6 0.00 0.00 0.00 74 1008.1
20260505114425 59 264 0.9 2.6 0.00 0.00 0.00 74 1008.0
20260505114304 59 254 0.9 1.7 0.00 0.00 0.00 74 1008.1
20260505114204 59 259 1.7 1.7 0.00 0.00 0.00 74 1007.9
20260505114125 59 256 0.9 1.7 0.00 0.00 0.00 74 1007.9
20260505114003 59 249 0.0 1.7 0.00 0.00 0.00 74 1007.9
20260505113925 59 250 0.9 1.7 0.00 0.00 0.00 74 1007.9
20260505113804 59 263 0.9 2.6 0.00 0.00 0.00 74 1008.0
20260505113704 59 272 0.9 2.6 0.00 0.00 0.00 74 1007.8
20260505113604 59 257 0.9 1.7 0.00 0.00 0.00 74 1007.9
20260505113504 59 263 0.9 1.7 0.00 0.00 0.00 74 1007.8
20260505113403 59 269 0.9 1.7 0.00 0.00 0.00 74 1007.9
20260505113325 59 281 0.9 1.7 0.00 0.00 0.00 74 1008.0
20260505113203 59 291 1.7 2.6 0.00 0.00 0.00 74 1007.9
20260505113104 59 294 0.9 2.6 0.00 0.00 0.00 74 1008.0
20260505113004 59 281 1.7 2.6 0.00 0.00 0.00 74 1008.0
20260505112904 59 282 1.7 2.6 0.00 0.00 0.00 74 1007.9
20260505112804 59 277 1.7 2.6 0.00 0.00 0.00 74 1008.0
20260505112724 59 267 1.7 2.6 0.00 0.00 0.00 74 1007.9
20260505112603 59 276 1.7 2.6 0.00 0.00 0.00 74 1007.8
20260505112525 59 266 0.9 2.6 0.00 0.00 0.00 74 1007.9
20260505112404 59 272 1.7 1.7 0.00 0.00 0.00 74 1008.1
20260505112305 59 263 0.9 1.7 0.00 0.00 0.00 74 1008.0
20260505112204 59 279 0.9 1.7 0.00 0.00 0.00 74 1007.9
20260505112125 59 279 0.9 1.7 0.00 0.00 0.00 74 1007.8
20260505112004 59 268 0.9 2.6 0.00 0.00 0.00 74 1007.9
20260505111904 59 264 1.7 2.6 0.00 0.00 0.00 74 1007.8
20260505111804 59 264 1.7 2.6 0.00 0.00 0.00 74 1007.6
20260505111704 60 275 0.9 1.7 0.00 0.00 0.00 74 1007.7
20260505111604 60 265 0.9 1.7 0.00 0.00 0.00 74 1007.6
20260505111504 60 274 1.7 1.7 0.00 0.00 0.00 74 1007.6
20260505111424 60 263 0.9 2.6 0.00 0.00 0.00 74 1007.7
20260505111325 60 262 0.9 2.6 0.00 0.00 0.00 74 1007.6
20260505111225 60 278 1.7 2.6 0.00 0.00 0.00 74 1007.8
20260505111104 60 266 1.7 2.6 0.00 0.00 0.00 74 1007.6
20260505111004 60 262 0.9 1.7 0.00 0.00 0.00 74 1007.5
20260505110903 60 252 0.9 1.7 0.00 0.00 0.00 74 1007.7
20260505110803 60 282 1.7 2.6 0.00 0.00 0.00 74 1007.6
20260505110704 60 243 0.9 2.6 0.00 0.00 0.00 74 1007.5
20260505110604 60 256 0.9 1.7 0.00 0.00 0.00 74 1007.7
20260505110504 60 264 0.9 1.7 0.00 0.00 0.00 74 1007.5
20260505110404 60 264 0.9 1.7 0.00 0.00 0.00 74 1007.4
20260505110304 60 270 0.9 2.6 0.00 0.00 0.00 74 1007.5
20260505110204 60 286 1.7 2.6 0.00 0.00 0.00 73 1007.5
20260505110104 60 277 1.7 2.6 0.00 0.00 0.00 73 1007.4
20260505102203 62 258 0.9 2.6 0.00 0.00 0.00 69 1007.0
20260505102104 62 284 1.7 2.6 0.00 0.00 0.00 69 1007.0
20260505102004 62 244 0.9 2.6 0.00 0.00 0.00 69 1006.8
20260505101904 63 259 1.7 2.6 0.00 0.00 0.00 69 1006.7
20260505101803 63 256 0.9 2.6 0.00 0.00 0.00 68 1007.0
20260505101704 63 249 0.0 1.7 0.00 0.00 0.00 67 1006.9
20260505101604 63 244 0.0 1.7 0.00 0.00 0.00 66 1006.6
20260505101504 63 244 0.9 1.7 0.00 0.00 0.00 66 1006.7
20260505101404 63 267 0.9 1.7 0.00 0.00 0.00 65 1006.6
20260505101304 63 273 0.9 1.7 0.00 0.00 0.00 65 1006.7
20260505101204 63 276 0.9 1.7 0.00 0.00 0.00 65 1006.6
20260505101104 63 276 0.9 1.7 0.00 0.00 0.00 65 1006.6
20260505101025 63 278 0.9 1.7 0.00 0.00 0.00 65 1006.6
20260505100904 63 260 0.9 0.9 0.00 0.00 0.00 65 1006.6
20260505100825 63 255 0.9 0.9 0.00 0.00 0.00 65 1006.7
20260505100704 63 251 0.0 0.9 0.00 0.00 0.00 65 1006.6
20260505100603 63 252 0.9 0.9 0.00 0.00 0.00 65 1006.7
20260505100504 62 258 0.9 0.9 0.00 0.00 0.00 65 1006.5
20260505100404 62 257 0.9 0.9 0.00 0.00 0.00 66 1006.6
20260505100304 63 253 0.9 0.9 0.00 0.00 0.00 67 1006.6
20260505100204 63 253 0.9 0.9 0.00 0.00 0.00 67 1006.7
20260505100103 63 257 0.9 0.9 0.00 0.00 0.00 67 1006.7
20260505100024 63 254 0.0 0.9 0.00 0.00 0.00 67 1006.4
20260505095903 63 256 0.9 0.9 0.00 0.00 0.00 67 1006.7
20260505095803 63 260 0.9 0.9 0.00 0.00 0.00 66 1006.5
20260505095703 63 261 0.9 0.9 0.00 0.00 0.00 66 1006.5
20260505095604 63 261 0.9 1.7 0.00 0.00 0.00 66 1006.5
20260505095503 63 254 0.9 1.7 0.00 0.00 0.00 66 1006.6
20260505095424 63 258 0.9 1.7 0.00 0.00 0.00 66 1006.5
20260505095305 63 259 0.9 1.7 0.00 0.00 0.00 66 1006.4
20260505095204 63 264 0.9 1.7 0.00 0.00 0.00 67 1006.5
20260505095103 62 254 0.9 0.9 0.00 0.00 0.00 67 1006.4
20260505095024 62 247 0.0 0.9 0.00 0.00 0.00 67 1006.3
20260505094903 62 244 0.0 0.9 0.00 0.00 0.00 68 1006.4
20260505094804 62 241 0.0 0.9 0.00 0.00 0.00 68 1006.6
20260505094704 62 247 0.0 0.9 0.00 0.00 0.00 69 1006.5
20260505094604 62 0 0.0 0.0 0.00 0.00 0.00 69 1006.4
20260505094503 62 0 0.0 0.0 0.00 0.00 0.00 70 1006.3
20260505094403 62 0 0.0 0.0 0.00 0.00 0.00 69 1006.4
20260505094303 62 0 0.0 0.0 0.00 0.00 0.00 69 1006.5
20260505094204 62 0 0.0 0.0 0.00 0.00 0.00 69 1006.5
20260505094103 62 0 0.0 0.0 0.00 0.00 0.00 69 1006.4
20260505094003 62 0 0.0 0.0 0.00 0.00 0.00 69 1006.5
20260505093903 62 0 0.0 0.0 0.00 0.00 0.00 68 1006.5
20260505093825 62 0 0.0 0.0 0.00 0.00 0.00 68 1006.6
20260505093725 62 0 0.0 0.0 0.00 0.00 0.00 68 1006.7
20260505093604 62 0 0.0 0.0 0.00 0.00 0.00 67 1006.6
20260505093525 62 0 0.0 0.0 0.00 0.00 0.00 67 1006.5
20260505093403 63 0 0.0 0.0 0.00 0.00 0.00 67 1006.6
20260505093304 63 0 0.0 0.0 0.00 0.00 0.00 67 1006.7
20260505093203 63 0 0.0 0.0 0.00 0.00 0.00 67 1006.6
20260505093104 63 0 0.0 0.0 0.00 0.00 0.00 67 1006.6
20260505093024 63 0 0.0 0.0 0.00 0.00 0.00 67 1006.6
20260505092904 63 0 0.0 0.0 0.00 0.00 0.00 67 1006.8
20260505092803 63 0 0.0 0.0 0.00 0.00 0.00 67 1006.5
20260505092725 63 0 0.0 0.0 0.00 0.00 0.00 67 1006.5
20260505092604 63 0 0.0 0.0 0.00 0.00 0.00 67 1006.5
20260505092504 63 0 0.0 0.0 0.00 0.00 0.00 66 1006.6
20260505092403 63 0 0.0 0.0 0.00 0.00 0.00 66 1006.6
20260505092305 63 0 0.0 0.0 0.00 0.00 0.00 66 1006.7
20260505092204 63 0 0.0 0.0 0.00 0.00 0.00 66 1006.5
20260505092103 64 0 0.0 0.0 0.00 0.00 0.00 66 1006.6
20260505092004 64 0 0.0 0.0 0.00 0.00 0.00 66 1006.6
20260505091903 64 0 0.0 0.0 0.00 0.00 0.00 65 1006.6
20260505091804 64 0 0.0 0.0 0.00 0.00 0.00 65 1006.7
20260505091703 64 0 0.0 0.0 0.00 0.00 0.00 65 1006.8
20260505091604 64 0 0.0 0.0 0.00 0.00 0.00 65 1006.8
20260505091503 64 0 0.0 0.0 0.00 0.00 0.00 65 1006.5
20260505091403 64 0 0.0 0.0 0.00 0.00 0.00 64 1006.6
20260505091304 64 0 0.0 0.0 0.00 0.00 0.00 64 1006.5
20260505091203 64 0 0.0 0.0 0.00 0.00 0.00 64 1006.5
20260505091104 64 245 0.0 0.9 0.00 0.00 0.00 63 1006.5
20260505091004 65 244 0.0 0.9 0.00 0.00 0.00 63 1006.4
20260505090904 65 250 0.9 1.7 0.00 0.00 0.00 63 1006.4
20260505090825 65 259 0.9 1.7 0.00 0.00 0.00 63 1006.5
20260505090704 65 279 1.7 1.7 0.00 0.00 0.00 63 1006.7
20260505090604 65 270 0.9 1.7 0.00 0.00 0.00 63 1006.4
20260505090503 65 275 0.9 0.9 0.00 0.00 0.00 63 1006.4
20260505090424 65 272 0.9 0.9 0.00 0.00 0.00 63 1006.4
20260505090325 65 261 0.9 1.7 0.00 0.00 0.00 63 1006.5
20260505090204 65 264 0.9 2.6 0.00 0.00 0.00 63 1006.6
20260505090004 65 284 0.9 2.6 0.00 0.00 0.00 62 1006.5
20260505085904 65 269 0.9 1.7 0.00 0.00 0.00 62 1006.5
20260505085803 65 264 0.9 0.9 0.00 0.00 0.00 62 1006.5
20260505085704 65 256 0.9 0.9 0.00 0.00 0.00 62 1006.4
20260505085604 65 256 0.9 0.9 0.00 0.00 0.00 62 1006.4
20260505085504 65 255 0.9 0.9 0.00 0.00 0.00 62 1006.2
20260505085404 65 259 0.9 0.9 0.00 0.00 0.00 62 1006.2
20260505085304 65 246 0.0 1.7 0.00 0.00 0.00 62 1006.4
20260505085203 65 254 0.9 1.7 0.00 0.00 0.00 62 1006.4
20260505085124 65 264 0.9 0.9 0.00 0.00 0.00 62 1006.3
20260505085004 65 249 0.0 0.9 0.00 0.00 0.00 62 1006.5
20260505084904 65 244 0.0 0.9 0.00 0.00 0.00 62 1006.3
20260505084804 65 251 0.0 0.9 0.00 0.00 0.00 62 1006.5
20260505084704 65 248 0.0 0.9 0.00 0.00 0.00 62 1006.6
20260505084625 65 248 0.0 0.9 0.00 0.00 0.00 62 1006.5
20260505084504 65 249 0.0 0.9 0.00 0.00 0.00 62 1006.5
20260505084403 65 247 0.0 0.9 0.00 0.00 0.00 62 1006.6
20260505084324 65 252 0.9 0.9 0.00 0.00 0.00 62 1006.6
20260505084224 65 256 0.9 0.9 0.00 0.00 0.00 62 1006.5
20260505084103 65 254 0.9 0.9 0.00 0.00 0.00 62 1006.4
20260505084003 65 255 0.9 0.9 0.00 0.00 0.00 62 1006.3
20260505083903 65 257 0.9 0.9 0.00 0.00 0.00 62 1006.5
20260505083803 65 246 0.0 0.9 0.00 0.00 0.00 62 1006.4
20260505083704 65 0 0.0 0.0 0.00 0.00 0.00 62 1006.4
20260505083604 65 243 0.0 0.9 0.00 0.00 0.00 62 1006.3
20260505083504 65 247 0.0 0.9 0.00 0.00 0.00 62 1006.4
20260505083403 64 245 0.0 0.9 0.00 0.00 0.00 63 1006.2
20260505083303 64 250 0.9 0.9 0.00 0.00 0.00 63 1006.4
20260505083203 64 247 0.0 0.9 0.00 0.00 0.00 63 1006.3
20260505083103 64 252 0.9 0.9 0.00 0.00 0.00 63 1006.3
20260505083004 64 0 0.0 0.0 0.00 0.00 0.00 63 1006.4
20260505082904 64 0 0.0 0.0 0.00 0.00 0.00 63 1006.3
20260505082825 64 0 0.0 0.0 0.00 0.00 0.00 63 1006.3
20260505082704 64 0 0.0 0.0 0.00 0.00 0.00 63 1006.3
20260505082604 64 0 0.0 0.0 0.00 0.00 0.00 63 1006.2
20260505082503 65 0 0.0 0.0 0.00 0.00 0.00 63 1006.2
20260505082403 65 0 0.0 0.0 0.00 0.00 0.00 63 1006.2
20260505082324 65 0 0.0 0.0 0.00 0.00 0.00 63 1006.3
20260505082204 65 0 0.0 0.0 0.00 0.00 0.00 62 1006.2
20260505082104 65 246 0.0 0.9 0.00 0.00 0.00 62 1006.4
20260505082003 65 246 0.0 0.9 0.00 0.00 0.00 62 1006.2
20260505081903 65 247 0.0 1.7 0.00 0.00 0.00 62 1006.2
20260505081804 65 255 0.9 1.7 0.00 0.00 0.00 62 1006.3
20260505081704 65 259 0.9 1.7 0.00 0.00 0.00 61 1006.1
20260505081604 65 248 0.0 0.9 0.00 0.00 0.00 61 1006.3
20260505081504 66 245 0.0 1.7 0.00 0.00 0.00 61 1006.3
20260505081425 66 243 0.0 2.6 0.00 0.00 0.00 61 1006.3
20260505081304 65 268 0.9 2.6 0.00 0.00 0.00 61 1006.3
20260505081204 65 311 1.7 2.6 0.00 0.00 0.00 61 1006.3
20260505081125 65 286 1.7 2.6 0.00 0.00 0.00 61 1006.3
20260505081003 65 246 0.9 0.9 0.00 0.00 0.00 61 1006.3
20260505080904 65 242 0.0 0.9 0.00 0.00 0.00 61 1006.4
20260505080804 65 252 0.9 0.9 0.00 0.00 0.00 61 1006.4
20260505080703 65 251 0.9 0.9 0.00 0.00 0.00 61 1006.2
20260505080604 65 253 0.9 0.9 0.00 0.00 0.00 62 1006.0
20260505080504 65 251 0.0 0.9 0.00 0.00 0.00 62 1006.2
20260505080425 65 253 0.9 0.9 0.00 0.00 0.00 62 1005.9
20260505080303 65 0 0.0 0.0 0.00 0.00 0.00 62 1006.0
20260505080203 65 247 0.0 0.9 0.00 0.00 0.00 62 1006.1
20260505080103 65 247 0.0 0.9 0.00 0.00 0.00 62 1006.1
20260505080004 65 252 0.0 0.9 0.00 0.00 0.00 62 1006.0
20260505075904 65 254 0.0 0.9 0.00 0.00 0.00 62 1005.9
20260505075803 65 250 0.9 0.9 0.00 0.00 0.00 62 1006.1
20260505075704 65 253 0.9 0.9 0.00 0.00 0.00 62 1006.0
20260505075603 65 252 0.0 0.9 0.00 0.00 0.00 62 1006.1
20260505075503 66 253 0.9 0.9 0.00 0.00 0.00 62 1006.1
20260505075403 66 257 0.0 0.9 0.00 0.00 0.00 62 1006.1
20260505075304 66 255 0.0 0.9 0.00 0.00 0.00 62 1006.0
20260505075203 66 242 0.0 1.7 0.00 0.00 0.00 62 1006.1
20260505075104 66 249 0.9 2.6 0.00 0.00 0.00 61 1006.0
20260505075004 66 288 1.7 2.6 0.00 0.00 0.00 61 1005.9
20260505074903 66 258 0.9 0.9 0.00 0.00 0.00 61 1005.8
20260505074824 66 253 0.9 0.9 0.00 0.00 0.00 61 1005.9
20260505074704 66 265 0.9 3.5 0.00 0.00 0.00 60 1005.8
20260505074603 66 263 0.9 3.5 0.00 0.00 0.00 61 1005.9
20260505074503 66 344 2.6 3.5 0.00 0.00 0.00 60 1005.9
20260505074403 66 283 1.7 1.7 0.00 0.00 0.00 60 1005.9
20260505074303 66 296 1.7 2.6 0.00 0.00 0.00 60 1005.9
20260505074204 66 320 1.7 2.6 0.00 0.00 0.00 60 1006.0
20260505074103 66 294 1.7 1.7 0.00 0.00 0.00 60 1006.1
20260505074003 66 267 0.9 1.7 0.00 0.00 0.00 60 1006.1
20260505073904 66 264 0.9 1.7 0.00 0.00 0.00 60 1005.9
20260505073804 66 276 1.7 1.7 0.00 0.00 0.00 60 1005.8
20260505073703 66 270 0.9 1.7 0.00 0.00 0.00 60 1005.8
20260505073603 66 260 0.9 1.7 0.00 0.00 0.00 60 1005.8
20260505073503 66 259 0.9 0.9 0.00 0.00 0.00 60 1005.8
20260505073403 66 257 0.9 0.9 0.00 0.00 0.00 60 1005.9
20260505073304 66 250 0.0 0.9 0.00 0.00 0.00 60 1005.8
20260505073203 66 242 0.0 0.9 0.00 0.00 0.00 60 1005.6
20260505073104 66 255 0.9 0.9 0.00 0.00 0.00 60 1005.8
20260505073003 66 259 0.9 1.7 0.00 0.00 0.00 60 1005.8
20260505072903 66 257 0.9 1.7 0.00 0.00 0.00 60 1005.8
20260505072804 66 270 0.9 1.7 0.00 0.00 0.00 60 1005.9
20260505072724 66 273 0.9 1.7 0.00 0.00 0.00 61 1005.8
20260505072603 66 276 0.9 1.7 0.00 0.00 0.00 61 1005.6
20260505072525 66 267 0.9 1.7 0.00 0.00 0.00 61 1005.6
20260505072403 65 266 0.9 1.7 0.00 0.00 0.00 61 1005.5
20260505072305 65 253 0.9 1.7 0.00 0.00 0.00 61 1005.5
20260505072203 65 245 0.9 1.7 0.00 0.00 0.00 61 1005.6
20260505072103 65 247 0.9 0.9 0.00 0.00 0.00 62 1005.5
20260505072003 65 239 0.0 0.9 0.00 0.00 0.00 62 1005.5
20260505071925 65 0 0.0 0.0 0.00 0.00 0.00 62 1005.8
20260505071803 65 238 0.0 0.9 0.00 0.00 0.00 62 1005.3
20260505071724 65 237 0.0 0.9 0.00 0.00 0.00 61 1005.5
20260505071603 65 234 0.0 0.9 0.00 0.00 0.00 61 1005.5
20260505071503 65 237 0.0 0.9 0.00 0.00 0.00 61 1005.3
20260505071424 65 237 0.0 0.9 0.00 0.00 0.00 61 1005.4
20260505071303 66 233 0.0 0.9 0.00 0.00 0.00 61 1005.4
20260505071204 66 233 0.0 0.9 0.00 0.00 0.00 61 1005.5
20260505071104 66 231 0.0 0.9 0.00 0.00 0.00 60 1005.4
20260505071024 66 233 0.0 0.9 0.00 0.00 0.00 60 1005.5
20260505070903 66 226 0.0 0.9 0.00 0.00 0.00 60 1005.6
20260505070804 66 232 0.0 1.7 0.00 0.00 0.00 61 1005.5
20260505070704 66 226 0.9 1.7 0.00 0.00 0.00 60 1005.5
20260505070603 66 210 0.9 1.7 0.00 0.00 0.00 60 1005.4
20260505070503 66 214 0.9 1.7 0.00 0.00 0.00 60 1005.6
20260505070425 66 213 0.9 1.7 0.00 0.00 0.00 60 1005.5
20260505070303 66 214 0.9 1.7 0.00 0.00 0.00 59 1005.5
20260505070203 67 215 0.9 1.7 0.00 0.00 0.00 59 1005.5
20260505070103 67 213 0.9 1.7 0.00 0.00 0.00 59 1005.5
20260505070004 67 224 0.0 0.9 0.00 0.00 0.00 59 1005.5
20260505065903 67 235 0.0 0.9 0.00 0.00 0.00 59 1005.3
20260505065803 67 229 0.0 0.9 0.00 0.00 0.00 59 1005.4
20260505065704 67 227 0.0 0.9 0.00 0.00 0.00 58 1005.4
20260505065603 67 213 0.0 0.9 0.00 0.00 0.00 58 1005.4
20260505065503 67 235 0.0 0.9 0.00 0.00 0.00 58 1005.4
20260505065425 67 234 0.0 1.7 0.00 0.00 0.00 57 1005.5
20260505065304 68 207 0.9 1.7 0.00 0.00 0.00 57 1005.3
20260505065204 68 181 0.9 2.6 0.00 0.00 0.00 57 1005.4
20260505065104 68 116 1.7 2.6 0.00 0.00 0.00 57 1005.5
20260505065004 68 101 1.7 2.6 0.00 0.00 0.00 57 1005.4
20260505064924 68 143 1.7 2.6 0.00 0.00 0.00 56 1005.4
20260505064804 68 167 0.9 3.5 0.00 0.00 0.00 56 1005.2
20260505064703 68 157 1.7 3.5 0.00 0.00 0.00 56 1005.2
20260505064603 68 84 2.6 3.5 0.00 0.00 0.00 56 1005.2
20260505064503 68 129 1.7 2.6 0.00 0.00 0.00 55 1005.4
20260505064425 68 214 0.0 1.7 0.00 0.00 0.00 55 1005.1
20260505064304 68 193 0.9 1.7 0.00 0.00 0.00 55 1005.4
20260505064204 68 101 0.9 1.7 0.00 0.00 0.00 55 1005.2
20260505064103 68 229 0.0 0.9 0.00 0.00 0.00 55 1005.1
20260505064003 68 243 0.0 0.9 0.00 0.00 0.00 54 1005.2
20260505063925 68 260 0.9 0.9 0.00 0.00 0.00 54 1005.2
20260505063803 68 246 0.0 0.9 0.00 0.00 0.00 54 1005.0
20260505063704 68 259 0.9 1.7 0.00 0.00 0.00 54 1005.3
20260505063604 68 278 0.9 1.7 0.00 0.00 0.00 54 1005.0
20260505063525 68 272 0.9 1.7 0.00 0.00 0.00 54 1005.0
20260505063403 68 303 1.7 2.6 0.00 0.00 0.00 54 1005.1
20260505063304 69 291 1.7 2.6 0.00 0.00 0.00 53 1005.1
20260505063203 69 260 0.0 1.7 0.00 0.00 0.00 53 1005.1
20260505063103 69 276 1.7 2.6 0.00 0.00 0.00 53 1005.0
20260505063004 69 279 1.7 2.6 0.00 0.00 0.00 53 1005.0
20260505062903 69 254 0.9 2.6 0.00 0.00 0.00 52 1005.0
20260505062804 69 311 1.7 2.6 0.00 0.00 0.00 52 1005.0
20260505062725 69 308 1.7 2.6 0.00 0.00 0.00 52 1005.0
20260505062603 69 311 1.7 2.6 0.00 0.00 0.00 51 1005.1
20260505062503 69 313 1.7 1.7 0.00 0.00 0.00 51 1005.1
20260505062403 69 309 0.9 1.7 0.00 0.00 0.00 51 1005.1
20260505062304 69 250 0.0 1.7 0.00 0.00 0.00 52 1005.2
20260505062204 69 270 0.9 1.7 0.00 0.00 0.00 52 1005.2
20260505062104 69 302 0.9 1.7 0.00 0.00 0.00 53 1005.1
20260505062004 69 271 0.9 1.7 0.00 0.00 0.00 54 1005.1
20260505061904 68 277 0.9 1.7 0.00 0.00 0.00 55 1005.0
20260505061803 68 258 0.0 0.9 0.00 0.00 0.00 55 1004.9
20260505061725 69 240 0.0 0.9 0.00 0.00 0.00 54 1005.2
20260505061603 69 242 0.9 0.9 0.00 0.00 0.00 54 1005.0
20260505061504 69 0 0.0 0.0 0.00 0.00 0.00 54 1005.1
20260505061403 69 0 0.0 0.0 0.00 0.00 0.00 54 1004.9
20260505061303 69 239 0.0 0.9 0.00 0.00 0.00 54 1005.1
20260505061203 69 238 0.0 0.9 0.00 0.00 0.00 54 1005.0
20260505061103 69 233 0.9 0.9 0.00 0.00 0.00 54 1005.0
20260505061004 69 235 0.0 0.9 0.00 0.00 0.00 54 1004.9
20260505060904 69 236 0.0 0.9 0.00 0.00 0.00 54 1005.1
20260505060824 69 0 0.0 0.0 0.00 0.00 0.00 54 1005.0
20260505060704 69 237 0.0 0.9 0.00 0.00 0.00 54 1004.8
20260505060603 69 236 0.0 0.9 0.00 0.00 0.00 54 1004.9
20260505060503 69 235 0.0 0.9 0.00 0.00 0.00 54 1005.0
20260505060425 69 233 0.9 0.9 0.00 0.00 0.00 54 1005.0
20260505060325 69 237 0.0 0.9 0.00 0.00 0.00 54 1005.0
20260505060204 69 237 0.9 0.9 0.00 0.00 0.00 54 1004.9
20260505060103 69 236 0.0 0.9 0.00 0.00 0.00 54 1004.9
20260505060003 69 0 0.0 0.0 0.00 0.00 0.00 54 1005.0
20260505055903 69 0 0.0 0.0 0.00 0.00 0.00 54 1004.8
20260505055803 69 0 0.0 0.0 0.00 0.00 0.00 54 1004.9
20260505055703 69 236 0.0 0.9 0.00 0.00 0.00 53 1005.1
20260505055603 69 235 0.0 0.9 0.00 0.00 0.00 53 1005.1
20260505055504 69 231 0.0 0.9 0.00 0.00 0.00 53 1005.1
20260505055403 70 0 0.0 0.0 0.00 0.00 0.00 53 1005.0
20260505055304 70 0 0.0 0.0 0.00 0.00 0.00 53 1005.1
20260505055203 70 236 0.0 0.9 0.00 0.00 0.00 52 1005.0
20260505055103 70 233 0.0 0.9 0.00 0.00 0.00 52 1004.9
20260505055003 70 230 0.0 0.9 0.00 0.00 0.00 52 1005.0
20260505054924 70 0 0.0 0.0 0.00 0.00 0.00 52 1004.9
20260505054803 70 231 0.0 0.9 0.00 0.00 0.00 51 1005.0
20260505054704 70 226 0.0 1.7 0.00 0.00 0.00 52 1005.1
20260505054604 70 213 0.9 2.6 0.00 0.00 0.00 51 1005.0
20260505054503 70 116 1.7 2.6 0.00 0.00 0.00 51 1004.9
20260505054403 70 202 0.0 1.7 0.00 0.00 0.00 51 1004.8
20260505054303 71 158 0.9 2.6 0.00 0.00 0.00 50 1004.8
20260505054203 71 156 1.7 2.6 0.00 0.00 0.00 50 1004.8
20260505054125 71 158 0.9 1.7 0.00 0.00 0.00 50 1004.8
20260505054003 71 151 0.9 6.1 0.00 0.00 0.00 48 1004.8
20260505053903 72 93 2.6 6.1 0.00 0.00 0.00 48 1004.7
20260505053803 72 71 3.5 6.1 0.00 0.00 0.00 47 1004.8
20260505053703 72 70 2.6 6.1 0.00 0.00 0.00 45 1004.8
20260505053604 73 82 3.5 6.1 0.00 0.00 0.00 45 1004.8
20260505053503 73 71 3.5 6.1 0.00 0.00 0.00 43 1004.8
20260505053403 73 62 1.7 2.6 0.00 0.00 0.00 43 1004.8
20260505053303 73 239 0.0 0.9 0.00 0.00 0.00 41 1004.8
20260505053203 73 248 0.0 0.9 0.00 0.00 0.00 41 1004.6
20260505053103 73 238 0.0 0.9 0.00 0.00 0.00 41 1004.6
20260505053004 72 253 0.0 0.9 0.00 0.00 0.00 41 1004.3
20260505052903 72 192 0.0 0.9 0.00 0.00 0.00 41 1004.6
20260505052804 72 232 0.0 0.9 0.00 0.00 0.00 40 1004.4
20260505052724 72 241 0.0 0.9 0.00 0.00 0.00 40 1004.6
20260505052603 72 273 0.0 0.9 0.00 0.00 0.00 40 1004.4
20260505052503 72 0 0.0 0.0 0.00 0.00 0.00 40 1004.6
20260505052403 72 0 0.0 0.0 0.00 0.00 0.00 39 1004.6
20260505052324 72 0 0.0 0.0 0.00 0.00 0.00 39 1004.3
20260505052204 72 0 0.0 0.0 0.00 0.00 0.00 39 1004.4
20260505052103 73 0 0.0 0.0 0.00 0.00 0.00 40 1004.6
20260505052003 73 0 0.0 0.0 0.00 0.00 0.00 40 1004.4
20260505051903 73 0 0.0 0.0 0.00 0.00 0.00 40 1004.4
20260505051803 73 0 0.0 0.0 0.00 0.00 0.00 40 1004.4
20260505051703 73 0 0.0 0.0 0.00 0.00 0.00 39 1004.3
20260505051603 73 0 0.0 0.0 0.00 0.00 0.00 40 1004.6
20260505051503 73 0 0.0 0.0 0.00 0.00 0.00 39 1004.6
20260505051403 73 0 0.0 0.0 0.00 0.00 0.00 39 1004.4
20260505051324 73 0 0.0 0.0 0.00 0.00 0.00 39 1004.4
20260505051203 73 0 0.0 0.0 0.00 0.00 0.00 38 1004.4
20260505051103 74 0 0.0 0.0 0.00 0.00 0.00 39 1004.6
20260505051004 74 0 0.0 0.0 0.00 0.00 0.00 40 1004.3
20260505050924 74 0 0.0 0.0 0.00 0.00 0.00 40 1004.6
20260505050803 74 0 0.0 0.0 0.00 0.00 0.00 39 1004.7
20260505050703 74 0 0.0 0.0 0.00 0.00 0.00 40 1004.4
20260505050603 74 0 0.0 0.0 0.00 0.00 0.00 38 1004.4
20260505050503 74 0 0.0 0.0 0.00 0.00 0.00 38 1004.4
20260505050403 75 0 0.0 0.0 0.00 0.00 0.00 37 1004.6
20260505050304 75 0 0.0 0.0 0.00 0.00 0.00 37 1004.4
20260505050204 75 241 0.0 0.9 0.00 0.00 0.00 37 1004.3
20260505050104 75 245 0.0 0.9 0.00 0.00 0.00 37 1004.3
20260505041703 77 220 0.9 1.7 0.00 0.00 0.00 34 1004.6
20260505041603 77 198 0.9 1.7 0.00 0.00 0.00 35 1004.6
20260505041524 77 196 0.9 1.7 0.00 0.00 0.00 34 1004.6
20260505041424 78 208 0.9 1.7 0.00 0.00 0.00 34 1004.7
20260505041303 78 210 0.9 0.9 0.00 0.00 0.00 32 1004.6
20260505041203 78 0 0.0 0.0 0.00 0.00 0.00 31 1004.3
20260505041103 78 0 0.0 0.0 0.00 0.00 0.00 32 1004.3
20260505041004 78 242 0.0 0.9 0.00 0.00 0.00 33 1004.4
20260505040903 78 240 0.0 0.9 0.00 0.00 0.00 33 1004.4
20260505040803 78 233 0.9 0.9 0.00 0.00 0.00 33 1004.4
20260505040703 78 240 0.9 0.9 0.00 0.00 0.00 33 1004.4
20260505040604 78 239 0.0 0.9 0.00 0.00 0.00 33 1004.3
20260505040503 78 240 0.0 0.9 0.00 0.00 0.00 33 1004.2
20260505040403 78 248 0.0 0.9 0.00 0.00 0.00 32 1004.3
20260505040303 78 239 0.0 0.9 0.00 0.00 0.00 33 1004.3
20260505040203 78 235 0.0 0.9 0.00 0.00 0.00 33 1004.2
20260505040124 78 239 0.0 0.9 0.00 0.00 0.00 33 1004.2
20260505040004 78 0 0.0 0.0 0.00 0.00 0.00 32 1004.2
20260505035903 78 0 0.0 0.0 0.00 0.00 0.00 32 1004.2
20260505035803 78 239 0.0 0.9 0.00 0.00 0.00 33 1004.2
20260505035703 78 236 0.0 0.9 0.00 0.00 0.00 34 1004.2
20260505035604 78 0 0.0 0.0 0.00 0.00 0.00 33 1004.2
20260505035503 78 239 0.0 0.9 0.00 0.00 0.00 33 1004.2
20260505035403 78 239 0.0 0.9 0.00 0.00 0.00 32 1004.1
20260505035304 79 235 0.9 0.9 0.00 0.00 0.00 33 1004.1
20260505035203 79 227 0.0 0.9 0.00 0.00 0.00 32 1004.1
20260505035103 79 0 0.0 0.0 0.00 0.00 0.00 32 1004.2
20260505035003 79 0 0.0 0.0 0.00 0.00 0.00 32 1004.1
20260505034903 79 0 0.0 0.0 0.00 0.00 0.00 31 1003.9
20260505034803 79 0 0.0 0.0 0.00 0.00 0.00 32 1004.3
20260505034724 79 0 0.0 0.0 0.00 0.00 0.00 32 1004.1
20260505034603 79 0 0.0 0.0 0.00 0.00 0.00 32 1004.0
20260505034503 79 0 0.0 0.0 0.00 0.00 0.00 31 1004.2
20260505034403 79 0 0.0 0.0 0.00 0.00 0.00 31 1004.2
20260505034303 79 0 0.0 0.0 0.00 0.00 0.00 31 1004.0
20260505034203 79 0 0.0 0.0 0.00 0.00 0.00 31 1004.1
20260505034103 79 0 0.0 0.0 0.00 0.00 0.00 31 1003.9
20260505034003 79 0 0.0 0.0 0.00 0.00 0.00 31 1004.1
20260505033903 79 0 0.0 0.0 0.00 0.00 0.00 31 1003.9
20260505033804 79 0 0.0 0.0 0.00 0.00 0.00 32 1004.0
20260505033703 79 0 0.0 0.0 0.00 0.00 0.00 31 1003.9
20260505033624 79 0 0.0 0.0 0.00 0.00 0.00 31 1003.9
20260505033524 79 0 0.0 0.0 0.00 0.00 0.00 31 1003.9
20260505033424 79 0 0.0 0.0 0.00 0.00 0.00 31 1003.9
20260505033303 79 0 0.0 0.0 0.00 0.00 0.00 31 1004.0
20260505033203 79 0 0.0 0.0 0.00 0.00 0.00 31 1004.0
20260505033103 79 0 0.0 0.0 0.00 0.00 0.00 31 1003.9
20260505033003 79 0 0.0 0.0 0.00 0.00 0.00 31 1003.8
20260505032903 79 0 0.0 0.0 0.00 0.00 0.00 31 1004.0
20260505032824 79 0 0.0 0.0 0.00 0.00 0.00 31 1003.9
20260505032703 79 0 0.0 0.0 0.00 0.00 0.00 31 1003.9
20260505032603 79 0 0.0 0.0 0.00 0.00 0.00 31 1003.9
20260505032503 79 0 0.0 0.0 0.00 0.00 0.00 31 1003.7
20260505032403 79 0 0.0 0.0 0.00 0.00 0.00 31 1003.9
20260505032304 79 0 0.0 0.0 0.00 0.00 0.00 31 1004.0
20260505032203 79 0 0.0 0.0 0.00 0.00 0.00 31 1003.9
20260505032103 79 0 0.0 0.0 0.00 0.00 0.00 31 1003.9
20260505032003 79 0 0.0 0.0 0.00 0.00 0.00 31 1003.9
20260505031903 79 0 0.0 0.0 0.00 0.00 0.00 31 1004.0
20260505031803 79 0 0.0 0.0 0.00 0.00 0.00 30 1004.0
20260505031703 79 0 0.0 0.0 0.00 0.00 0.00 30 1003.7
20260505031603 79 0 0.0 0.0 0.00 0.00 0.00 31 1003.8
20260505031503 79 0 0.0 0.0 0.00 0.00 0.00 30 1003.7
20260505031404 80 0 0.0 0.0 0.00 0.00 0.00 30 1003.7
20260505031303 80 0 0.0 0.0 0.00 0.00 0.00 30 1003.8
20260505031203 80 0 0.0 0.0 0.00 0.00 0.00 30 1003.6
20260505031103 80 0 0.0 0.0 0.00 0.00 0.00 29 1003.9
20260505031003 80 0 0.0 0.0 0.00 0.00 0.00 29 1003.7
20260505030924 80 0 0.0 0.0 0.00 0.00 0.00 29 1003.8
20260505030803 80 0 0.0 0.0 0.00 0.00 0.00 28 1003.9
20260505030703 80 0 0.0 0.0 0.00 0.00 0.00 28 1003.9
20260505030603 80 0 0.0 0.0 0.00 0.00 0.00 28 1003.8
20260505030503 81 0 0.0 0.0 0.00 0.00 0.00 28 1003.7
20260505030403 81 0 0.0 0.0 0.00 0.00 0.00 28 1003.7
20260505030303 81 0 0.0 0.0 0.00 0.00 0.00 28 1003.7
20260505030203 81 0 0.0 0.0 0.00 0.00 0.00 27 1003.9
20260505030103 81 0 0.0 0.0 0.00 0.00 0.00 27 1003.7
20260505030004 82 0 0.0 0.0 0.00 0.00 0.00 27 1003.6
20260505025903 82 0 0.0 0.0 0.00 0.00 0.00 27 1003.7
20260505025824 82 0 0.0 0.0 0.00 0.00 0.00 26 1003.8
20260505025703 82 0 0.0 0.0 0.00 0.00 0.00 26 1003.6
20260505025603 82 0 0.0 0.0 0.00 0.00 0.00 25 1003.7
20260505025503 82 0 0.0 0.0 0.00 0.00 0.00 25 1003.6
20260505025403 82 0 0.0 0.0 0.00 0.00 0.00 25 1003.6
20260505025304 83 0 0.0 0.0 0.00 0.00 0.00 25 1003.8
20260505025203 83 0 0.0 0.0 0.00 0.00 0.00 25 1003.7
20260505025104 83 0 0.0 0.0 0.00 0.00 0.00 24 1003.8
20260505025024 83 0 0.0 0.0 0.00 0.00 0.00 25 1003.6
20260505024903 83 0 0.0 0.0 0.00 0.00 0.00 25 1003.7
20260505024824 83 0 0.0 0.0 0.00 0.00 0.00 25 1003.5
20260505024703 84 0 0.0 0.0 0.00 0.00 0.00 24 1003.7
20260505024604 84 0 0.0 0.0 0.00 0.00 0.00 24 1003.7
20260505024503 84 0 0.0 0.0 0.00 0.00 0.00 24 1003.7
20260505024424 84 0 0.0 0.0 0.00 0.00 0.00 24 1003.8
20260505024324 84 244 0.0 0.9 0.00 0.00 0.00 24 1003.7
20260505024204 85 241 0.0 0.9 0.00 0.00 0.00 23 1003.7
20260505024104 85 243 0.0 0.9 0.00 0.00 0.00 23 1003.7
20260505024003 85 246 0.0 0.9 0.00 0.00 0.00 23 1003.6
20260505023924 85 245 0.0 0.9 0.00 0.00 0.00 23 1003.7
20260505023803 85 246 0.0 0.9 0.00 0.00 0.00 23 1003.5
20260505023703 86 251 0.9 0.9 0.00 0.00 0.00 23 1003.8
20260505023603 86 256 0.9 1.7 0.00 0.00 0.00 23 1003.6
20260505023503 86 253 0.9 1.7 0.00 0.00 0.00 22 1003.6
20260505023403 86 278 1.7 1.7 0.00 0.00 0.00 22 1003.6
20260505023324 86 264 0.9 1.7 0.00 0.00 0.00 22 1003.6
20260505023203 86 264 0.9 1.7 0.00 0.00 0.00 22 1003.7
20260505023125 86 269 0.9 1.7 0.00 0.00 0.00 22 1003.6
20260505023003 87 252 0.0 0.9 0.00 0.00 0.00 22 1003.6
20260505022903 87 257 0.0 0.9 0.00 0.00 0.00 22 1003.7
20260505022804 87 251 0.9 1.7 0.00 0.00 0.00 22 1003.6
20260505022703 87 265 0.9 1.7 0.00 0.00 0.00 22 1003.6
20260505022603 87 272 0.9 1.7 0.00 0.00 0.00 21 1003.5
20260505022524 87 273 0.9 1.7 0.00 0.00 0.00 21 1003.7
20260505022403 87 253 0.9 0.9 0.00 0.00 0.00 22 1003.6
20260505022304 87 252 0.0 1.7 0.00 0.00 0.00 21 1003.6
20260505022203 87 258 0.9 1.7 0.00 0.00 0.00 22 1003.8
20260505022103 87 269 0.9 1.7 0.00 0.00 0.00 21 1003.7
20260505022024 87 259 0.9 1.7 0.00 0.00 0.00 21 1003.7
20260505021924 87 269 0.9 1.7 0.00 0.00 0.00 21 1003.7
20260505021803 87 273 1.7 2.6 0.00 0.00 0.00 21 1003.7
20260505021703 87 270 1.7 2.6 0.00 0.00 0.00 21 1003.5
20260505021603 87 302 1.7 2.6 0.00 0.00 0.00 21 1003.8
20260505021503 87 283 1.7 2.6 0.00 0.00 0.00 21 1003.8
20260505021403 87 310 2.6 2.6 0.00 0.00 0.00 21 1003.7
20260505021303 88 277 1.7 2.6 0.00 0.00 0.00 21 1003.6
20260505021203 88 265 0.9 3.5 0.00 0.00 0.00 21 1003.6
20260505021103 88 254 0.9 3.5 0.00 0.00 0.00 21 1003.7
20260505021003 88 278 2.6 3.5 0.00 0.00 0.00 21 1003.7
20260505020903 88 259 1.7 2.6 0.00 0.00 0.00 21 1003.8
20260505020824 88 261 1.7 2.6 0.00 0.00 0.00 21 1003.7
20260505020703 88 277 1.7 2.6 0.00 0.00 0.00 20 1003.7
20260505020603 88 285 0.9 2.6 0.00 0.00 0.00 20 1003.8
20260505020503 88 270 1.7 2.6 0.00 0.00 0.00 21 1003.7
20260505020403 88 322 1.7 3.5 0.00 0.00 0.00 20 1003.7
20260505020303 88 327 2.6 3.5 0.00 0.00 0.00 20 1003.8
20260505020203 88 291 1.7 2.6 0.00 0.00 0.00 20 1003.8
20260505020103 88 279 0.9 1.7 0.00 0.00 0.00 20 1003.8
20260505020003 88 241 0.9 1.7 0.00 0.00 0.00 20 1003.7
20260505015903 88 280 0.9 1.7 0.00 0.00 0.00 19 1003.7
20260505015803 88 277 0.9 3.5 0.00 0.00 0.00 21 1003.7
20260505015703 88 308 1.7 5.2 0.00 0.00 0.00 20 1003.9
20260505015603 88 329 2.6 5.2 0.00 0.00 0.00 20 1004.0
20260505015503 88 333 2.6 5.2 0.00 0.00 0.00 19 1003.6
20260505015403 88 297 3.5 7.8 0.00 0.00 0.00 21 1003.9
20260505015303 88 317 3.5 7.8 0.00 0.00 0.00 20 1003.9
20260505015203 88 319 1.7 3.5 0.00 0.00 0.00 20 1003.9
20260505015124 88 262 1.7 3.5 0.00 0.00 0.00 21 1003.8
20260505015024 88 295 2.6 3.5 0.00 0.00 0.00 20 1004.0
20260505014903 88 271 1.7 3.5 0.00 0.00 0.00 20 1003.8
20260505014824 88 274 0.9 3.5 0.00 0.00 0.00 20 1003.9
20260505014703 88 258 1.7 3.5 0.00 0.00 0.00 19 1004.0
20260505014603 88 274 2.6 3.5 0.00 0.00 0.00 21 1004.0
20260505014503 88 259 0.9 5.2 0.00 0.00 0.00 20 1004.0
20260505014403 88 312 2.6 5.2 0.00 0.00 0.00 20 1003.9
20260505014303 88 304 2.6 6.1 0.00 0.00 0.00 19 1003.9
20260505014224 88 299 2.6 6.1 0.00 0.00 0.00 22 1004.1
20260505014103 88 341 2.6 6.1 0.00 0.00 0.00 20 1004.0
20260505014003 88 336 4.3 6.1 0.00 0.00 0.00 19 1003.9
20260505013903 88 296 1.7 5.2 0.00 0.00 0.00 20 1003.9
20260505013803 88 296 2.6 5.2 0.00 0.00 0.00 19 1003.9
20260505013724 88 341 2.6 5.2 0.00 0.00 0.00 20 1003.9
20260505013603 88 303 1.7 5.2 0.00 0.00 0.00 20 1004.2
20260505013524 88 340 3.5 5.2 0.00 0.00 0.00 20 1003.9
20260505013424 88 282 1.7 3.5 0.00 0.00 0.00 20 1004.0
20260505013303 88 272 1.7 6.1 0.00 0.00 0.00 21 1004.2
20260505013203 88 320 3.5 6.1 0.00 0.00 0.00 20 1004.2
20260505013103 88 315 2.6 6.1 0.00 0.00 0.00 21 1004.2
20260505013004 88 260 1.7 6.1 0.00 0.00 0.00 22 1004.1
20260505012903 88 309 0.9 2.6 0.00 0.00 0.00 21 1004.2
20260505012803 88 259 1.7 7.0 0.00 0.00 0.00 21 1004.2
20260505012703 88 240 2.6 7.0 0.00 0.00 0.00 21 1004.1
20260505012624 88 346 2.6 5.2 0.00 0.00 0.00 20 1004.2
20260505012503 88 156 0.9 3.5 0.00 0.00 0.00 22 1004.2
20260505012403 88 263 1.7 3.5 0.00 0.00 0.00 21 1004.1
20260505012304 88 301 1.7 3.5 0.00 0.00 0.00 21 1004.1
20260505012203 88 304 1.7 2.6 0.00 0.00 0.00 22 1004.2
20260505012103 88 243 0.9 2.6 0.00 0.00 0.00 22 1004.2
20260505012024 88 245 0.9 3.5 0.00 0.00 0.00 23 1004.1
20260505011903 89 327 2.6 3.5 0.00 0.00 0.00 21 1004.0
20260505011803 89 274 0.9 1.7 0.00 0.00 0.00 22 1004.1
20260505011703 89 271 0.9 0.9 0.00 0.00 0.00 22 1004.1
20260505011624 88 252 0.0 1.7 0.00 0.00 0.00 22 1004.3
20260505011524 88 249 0.0 2.6 0.00 0.00 0.00 23 1004.2
20260505011403 88 261 0.9 1.7 0.00 0.00 0.00 22 1004.2
20260505011324 88 245 0.0 1.7 0.00 0.00 0.00 22 1004.1
20260505011225 88 237 0.9 1.7 0.00 0.00 0.00 23 1004.1
20260505011103 88 249 0.9 3.5 0.00 0.00 0.00 22 1004.3
20260505011003 88 311 2.6 3.5 0.00 0.00 0.00 22 1004.3
20260505010904 89 256 1.7 3.5 0.00 0.00 0.00 22 1004.2
20260505010803 89 285 2.6 3.5 0.00 0.00 0.00 21 1004.0
20260505010703 89 247 0.9 2.6 0.00 0.00 0.00 22 1004.0
20260505010603 89 275 1.7 2.6 0.00 0.00 0.00 22 1004.2
20260505010503 89 269 1.7 1.7 0.00 0.00 0.00 22 1004.3
20260505010403 89 252 0.0 0.9 0.00 0.00 0.00 20 1004.3
20260505010303 88 242 0.0 0.9 0.00 0.00 0.00 21 1004.3
20260505010203 88 247 0.0 1.7 0.00 0.00 0.00 22 1004.1
20260505010124 88 270 0.0 2.6 0.00 0.00 0.00 23 1004.3
20260505010004 88 243 0.9 2.6 0.00 0.00 0.00 22 1004.3
20260505005903 88 255 0.9 2.6 0.00 0.00 0.00 23 1004.1
20260505005803 88 257 0.9 2.6 0.00 0.00 0.00 21 1004.1
20260505005724 88 252 0.9 2.6 0.00 0.00 0.00 23 1004.1
20260505005603 89 283 2.6 3.5 0.00 0.00 0.00 21 1004.2
20260505005503 89 293 2.6 3.5 0.00 0.00 0.00 20 1004.2
20260505005403 89 266 1.7 2.6 0.00 0.00 0.00 21 1004.2
20260505005324 89 256 0.9 2.6 0.00 0.00 0.00 20 1004.2
20260505005203 90 241 0.9 2.6 0.00 0.00 0.00 21 1004.4
20260505005103 90 236 0.9 2.6 0.00 0.00 0.00 21 1004.2
20260505005004 90 245 0.9 1.7 0.00 0.00 0.00 21 1004.3
20260505004903 90 256 0.9 0.9 0.00 0.00 0.00 21 1004.2
20260505004803 90 225 0.9 0.9 0.00 0.00 0.00 21 1004.2
20260505004703 90 234 0.0 1.7 0.00 0.00 0.00 20 1004.3
20260505004603 90 244 0.0 1.7 0.00 0.00 0.00 20 1004.2
20260505004503 90 235 0.9 1.7 0.00 0.00 0.00 22 1004.4
20260505004403 90 229 0.9 1.7 0.00 0.00 0.00 21 1004.3
20260505004303 90 247 0.0 0.9 0.00 0.00 0.00 22 1004.2
20260505004224 89 245 0.0 1.7 0.00 0.00 0.00 22 1004.2
20260505004103 89 247 0.9 2.6 0.00 0.00 0.00 22 1004.3
20260505004003 89 263 1.7 2.6 0.00 0.00 0.00 21 1004.3
20260505003903 89 252 0.9 2.6 0.00 0.00 0.00 22 1004.4
20260505003803 89 240 0.9 2.6 0.00 0.00 0.00 23 1004.2
20260505003703 89 263 0.9 3.5 0.00 0.00 0.00 22 1004.3
20260505003603 89 264 0.9 3.5 0.00 0.00 0.00 23 1004.3
20260505003503 89 298 2.6 3.5 0.00 0.00 0.00 22 1004.4
20260505003403 89 283 0.9 2.6 0.00 0.00 0.00 22 1004.4
20260505003303 89 244 0.9 1.7 0.00 0.00 0.00 22 1004.6
20260505003203 89 234 0.0 0.9 0.00 0.00 0.00 22 1004.2
20260505003103 88 231 0.0 1.7 0.00 0.00 0.00 23 1004.4
20260505003003 88 246 0.0 2.6 0.00 0.00 0.00 25 1004.4
20260505002903 88 285 1.7 5.2 0.00 0.00 0.00 22 1004.6
20260505002803 88 316 3.5 6.1 0.00 0.00 0.00 22 1004.4
20260505002703 88 340 4.3 6.1 0.00 0.00 0.00 22 1004.6
20260505002603 89 339 4.3 6.1 0.00 0.00 0.00 22 1004.4
20260505002503 89 299 2.6 2.6 0.00 0.00 0.00 22 1004.4
20260505002403 89 257 0.9 5.2 0.00 0.00 0.00 22 1004.4
20260505002304 90 290 1.7 5.2 0.00 0.00 0.00 22 1004.3
20260505002203 90 302 0.9 3.5 0.00 0.00 0.00 22 1004.3
20260505002103 90 250 0.9 1.7 0.00 0.00 0.00 21 1004.3
20260505002003 90 253 0.9 1.7 0.00 0.00 0.00 23 1004.4
20260505001903 89 245 0.9 1.7 0.00 0.00 0.00 23 1004.4
20260505001803 89 247 0.9 1.7 0.00 0.00 0.00 22 1004.4
20260505001703 89 250 0.9 1.7 0.00 0.00 0.00 23 1004.4
20260505001603 89 248 0.9 2.6 0.00 0.00 0.00 22 1004.4
20260505001503 90 254 0.9 3.5 0.00 0.00 0.00 22 1004.4
20260505001403 90 251 1.7 3.5 0.00 0.00 0.00 23 1004.6
20260505001303 90 237 1.7 2.6 0.00 0.00 0.00 22 1004.3
20260505001224 90 238 0.9 2.6 0.00 0.00 0.00 22 1004.4
20260505001103 90 240 0.9 3.5 0.00 0.00 0.00 23 1004.4
20260505001003 89 233 1.7 3.5 0.00 0.00 0.00 23 1004.6
20260505000903 89 244 0.0 0.9 0.00 0.00 0.00 23 1004.3
20260505000803 88 252 0.0 1.7 0.00 0.00 0.00 22 1004.4
20260505000724 88 248 0.9 2.6 0.00 0.00 0.00 22 1004.4
20260505000603 88 253 0.9 2.6 0.00 0.00 0.00 22 1004.3
20260505000503 89 281 2.6 2.6 0.00 0.00 0.00 22 1004.3
20260505000405 88 259 0.9 2.6 0.00 0.00 0.00 23 1004.4
20260505000324 88 246 0.9 2.6 0.00 0.00 0.00 23 1004.4
20260505000226 88 266 0.9 3.5 0.00 0.00 0.00 23 1004.6
20260505000103 88 259 1.7 3.5 0.00 0.00 0.00 22 1004.4
20260505000003 88 279 2.6 3.5 0.00 0.00 0.00 22 1004.4
20260504235903 88 301 1.7 5.2 0.00 0.00 0.00 23 1004.3
20260504235803 88 335 3.5 5.2 0.00 0.00 0.00 22 1004.6
20260504235724 88 337 3.5 5.2 0.00 0.00 0.00 22 1004.6
20260504235603 88 352 3.5 5.2 0.00 0.00 0.00 22 1004.4
20260504235503 88 261 1.7 5.2 0.00 0.00 0.00 22 1004.8
20260504235403 88 300 2.6 5.2 0.00 0.00 0.00 24 1004.4
20260504235304 88 297 2.6 3.5 0.00 0.00 0.00 22 1004.2
20260504235203 88 232 0.9 3.5 0.00 0.00 0.00 25 1004.4
20260504235103 88 66 2.6 3.5 0.00 0.00 0.00 22 1004.3
20260504235003 88 228 0.0 5.2 0.00 0.00 0.00 22 1004.7
20260504234903 88 198 0.9 5.2 0.00 0.00 0.00 22 1004.7
20260504234803 88 91 1.7 5.2 0.00 0.00 0.00 23 1004.7
20260504234703 89 274 1.7 3.5 0.00 0.00 0.00 24 1004.6
20260504234603 89 307 2.6 3.5 0.00 0.00 0.00 22 1004.7
20260504234503 89 269 1.7 2.6 0.00 0.00 0.00 23 1004.6
20260504234403 89 333 0.9 1.7 0.00 0.00 0.00 23 1004.7
20260504234303 89 245 0.9 1.7 0.00 0.00 0.00 24 1004.6
20260504234203 89 306 1.7 1.7 0.00 0.00 0.00 22 1004.4
20260504234103 89 238 0.0 0.9 0.00 0.00 0.00 24 1004.6
20260504234003 88 240 0.0 1.7 0.00 0.00 0.00 24 1004.8
20260504233903 88 268 0.9 3.5 0.00 0.00 0.00 24 1004.4
20260504233803 88 257 0.9 3.5 0.00 0.00 0.00 22 1004.7
20260504233703 88 297 2.6 3.5 0.00 0.00 0.00 23 1004.6
20260504233603 88 307 2.6 3.5 0.00 0.00 0.00 22 1004.7
20260504233503 88 312 2.6 3.5 0.00 0.00 0.00 23 1004.4
20260504233403 88 265 0.9 2.6 0.00 0.00 0.00 23 1004.6
20260504233303 88 159 1.7 3.5 0.00 0.00 0.00 23 1004.8
20260504233224 88 91 1.7 3.5 0.00 0.00 0.00 24 1004.7
20260504233103 88 307 2.6 3.5 0.00 0.00 0.00 23 1004.4
20260504233003 88 265 0.0 1.7 0.00 0.00 0.00 22 1004.7
20260504232903 88 261 0.9 1.7 0.00 0.00 0.00 22 1004.6
20260504232803 88 240 0.0 5.2 0.00 0.00 0.00 24 1004.7
20260504232703 88 287 1.7 5.2 0.00 0.00 0.00 22 1004.4
20260504232603 88 333 3.5 5.2 0.00 0.00 0.00 22 1004.6
20260504232503 88 304 2.6 5.2 0.00 0.00 0.00 23 1004.7
20260504232424 88 293 2.6 3.5 0.00 0.00 0.00 23 1004.7
20260504232304 88 296 2.6 3.5 0.00 0.00 0.00 22 1004.6
20260504232203 88 252 2.6 6.1 0.00 0.00 0.00 22 1004.6
20260504232103 89 307 2.6 6.1 0.00 0.00 0.00 22 1004.6
20260504232003 89 247 0.9 5.2 0.00 0.00 0.00 22 1004.8
20260504231903 89 346 2.6 5.2 0.00 0.00 0.00 22 1004.6
20260504231803 88 248 0.9 2.6 0.00 0.00 0.00 22 1004.6
20260504231703 88 244 0.9 6.1 0.00 0.00 0.00 25 1004.7
20260504231603 89 271 1.7 6.1 0.00 0.00 0.00 23 1004.7
20260504231503 89 321 4.3 6.1 0.00 0.00 0.00 22 1004.7
20260504231403 90 299 1.7 3.5 0.00 0.00 0.00 22 1004.7
20260504231303 90 283 1.7 1.7 0.00 0.00 0.00 21 1004.7
20260504231203 89 239 0.9 1.7 0.00 0.00 0.00 24 1004.7
20260504231103 89 238 0.9 1.7 0.00 0.00 0.00 24 1004.7
20260504231003 89 201 0.9 1.7 0.00 0.00 0.00 22 1004.8
20260504230903 88 230 0.9 1.7 0.00 0.00 0.00 24 1004.8
20260504230803 88 260 0.9 2.6 0.00 0.00 0.00 24 1004.8
20260504230703 88 243 0.9 3.5 0.00 0.00 0.00 23 1004.9
20260504230624 88 262 1.7 3.5 0.00 0.00 0.00 25 1004.8
20260504230503 89 309 2.6 6.1 0.00 0.00 0.00 23 1004.8
20260504230403 89 298 3.5 5.2 0.00 0.00 0.00 22 1004.8
20260504230303 89 270 0.9 2.6 0.00 0.00 0.00 23 1004.8
20260504230204 89 281 0.9 2.6 0.00 0.00 0.00 23 1004.8
20260504230125 89 266 0.9 2.6 0.00 0.00 0.00 24 1004.7
20260504230005 89 307 1.7 3.5 0.00 0.00 0.00 24 1005.0
20260504225904 88 205 0.9 5.2 0.00 0.00 0.00 24 1004.8
20260504225804 88 308 0.9 5.2 0.00 0.00 0.00 26 1004.8
20260504225704 88 306 2.6 5.2 0.00 0.00 0.00 23 1004.8
20260504225605 88 228 0.9 5.2 0.00 0.00 0.00 26 1004.9
20260504225504 88 157 2.6 7.8 0.00 0.00 0.00 23 1004.8
20260504225404 88 7 4.3 7.8 0.00 0.00 0.00 23 1004.9
20260504225325 88 353 3.5 7.8 0.00 0.00 0.00 23 1004.8
20260504225225 88 327 4.3 7.8 0.00 0.00 0.00 22 1004.8
20260504225104 88 251 0.9 2.6 0.00 0.00 0.00 23 1005.0
20260504225004 88 274 1.7 2.6 0.00 0.00 0.00 28 1004.9
20260504224925 88 274 1.7 2.6 0.00 0.00 0.00 23 1004.8
20260504224805 88 270 1.7 3.5 0.00 0.00 0.00 23 1004.8
20260504224704 88 262 1.7 5.2 0.00 0.00 0.00 23 1004.8
20260504224604 88 282 1.7 5.2 0.00 0.00 0.00 24 1004.8
20260504224504 88 317 4.3 5.2 0.00 0.00 0.00 23 1004.9
20260504224404 88 289 2.6 5.2 0.00 0.00 0.00 23 1004.8
20260504224304 88 272 1.7 2.6 0.00 0.00 0.00 25 1004.8
20260504224204 88 206 0.9 2.6 0.00 0.00 0.00 23 1005.0
20260504224125 88 222 0.9 2.6 0.00 0.00 0.00 22 1004.9
20260504224004 88 201 0.9 2.6 0.00 0.00 0.00 23 1005.0
20260504223904 88 209 0.9 1.7 0.00 0.00 0.00 22 1005.1
20260504223804 88 239 0.9 1.7 0.00 0.00 0.00 23 1004.9
20260504223725 88 237 1.7 1.7 0.00 0.00 0.00 23 1005.0
20260504223604 88 209 0.9 2.6 0.00 0.00 0.00 23 1005.2
20260504223504 88 179 1.7 2.6 0.00 0.00 0.00 24 1005.1
20260504223404 87 231 0.9 3.5 0.00 0.00 0.00 24 1005.2